Observation data for Tahoka on 07/20/2019      Previous  Date       Current Mesonet Observations  Soil Data  Daily Summary Page  Observations in Plain Language
KTAS 200500Z 17012KT 29/12 A2995 RMK A01 T02930122  RH  035%=      5-min Rain = 0
KTAS 200501Z 17015KT 29/12 A2995 RMK A01 T02910122  RH  035%=      5-min Rain = 0
KTAS 200502Z 17015KT 29/12 A2995 RMK A01 T02920121  RH  035%=      5-min Rain = 0
KTAS 200503Z 17013KT 29/12 A2995 RMK A01 T02920122  RH  035%=      5-min Rain = 0
KTAS 200504Z 17012KT 29/12 A2995 RMK A01 T02910122  RH  035%=      5-min Rain = 0
KTAS 200505Z 18014KT 29/12 A2995 RMK A01 T02900122  RH  036%=      5-min Rain = 0
KTAS 200506Z 18016KT 29/12 A2995 RMK A01 T02900122  RH  036%=      5-min Rain = 0
KTAS 200507Z 17014G19KT 29/12 A2995 RMK A01 T02900122  RH  035%=      5-min Rain = 0
KTAS 200508Z 17013G19KT 29/12 A2996 RMK A01 T02900123  RH  036%=      5-min Rain = 0
KTAS 200509Z 17014KT 29/12 A2995 RMK A01 T02890123  RH  036%=      5-min Rain = 0
KTAS 200510Z 17014KT 29/12 A2995 RMK A01 T02890123  RH  036%=      5-min Rain = 0
KTAS 200511Z 17013KT 29/12 A2996 RMK A01 T02890123  RH  036%=      5-min Rain = 0
KTAS 200512Z 17012KT 29/12 A2996 RMK A01 T02890123  RH  036%=      5-min Rain = 0
KTAS 200513Z 17013KT 29/12 A2996 RMK A01 T02880123  RH  036%=      5-min Rain = 0
KTAS 200514Z 17013KT 29/12 A2996 RMK A01 T02870124  RH  036%=      5-min Rain = 0
KTAS 200515Z 17015G20KT 29/12 A2996 RMK A01 T02870124  RH  036%=      5-min Rain = 0
KTAS 200516Z 17013KT 29/12 A2996 RMK A01 T02880124  RH  036%=      5-min Rain = 0
KTAS 200517Z 18012KT 29/12 A2996 RMK A01 T02880124  RH  036%=      5-min Rain = 0
KTAS 200518Z 18013KT 29/12 A2996 RMK A01 T02870124  RH  037%=      5-min Rain = 0
KTAS 200519Z 18012KT 29/13 A2996 RMK A01 T02870125  RH  037%=      5-min Rain = 0
KTAS 200520Z 17013KT 29/12 A2996 RMK A01 T02870124  RH  037%=      5-min Rain = 0
KTAS 200521Z 17015KT 29/12 A2996 RMK A01 T02870124  RH  037%=      5-min Rain = 0
KTAS 200522Z 18015KT 29/12 A2996 RMK A01 T02870124  RH  037%=      5-min Rain = 0
KTAS 200523Z 18014G19KT 29/12 A2996 RMK A01 T02870124  RH  036%=      5-min Rain = 0
KTAS 200524Z 18014G19KT 29/12 A2996 RMK A01 T02870124  RH  036%=      5-min Rain = 0
KTAS 200525Z 17011KT 29/13 A2996 RMK A01 T02870125  RH  037%=      5-min Rain = 0
KTAS 200526Z 17017KT 29/12 A2996 RMK A01 T02860124  RH  037%=      5-min Rain = 0
KTAS 200527Z 17015KT 29/12 A2996 RMK A01 T02870124  RH  036%=      5-min Rain = 0
KTAS 200528Z 18013KT 29/13 A2996 RMK A01 T02880125  RH  037%=      5-min Rain = 0
KTAS 200529Z 17014KT 29/12 A2996 RMK A01 T02870124  RH  037%=      5-min Rain = 0
KTAS 200530Z 17015KT 29/12 A2996 RMK A01 T02870124  RH  037%=      5-min Rain = 0
KTAS 200531Z 17015KT 29/12 A2996 RMK A01 T02870124  RH  037%=      5-min Rain = 0
KTAS 200532Z 17017KT 29/12 A2996 RMK A01 T02870124  RH  037%=      5-min Rain = 0
KTAS 200533Z 17014KT 29/12 A2996 RMK A01 T02870124  RH  037%=      5-min Rain = 0
KTAS 200534Z 18017KT 29/12 A2996 RMK A01 T02870124  RH  037%=      5-min Rain = 0
KTAS 200535Z 18014KT 29/12 A2996 RMK A01 T02870124  RH  037%=      5-min Rain = 0
KTAS 200536Z 17016KT 29/12 A2996 RMK A01 T02870124  RH  037%=      5-min Rain = 0
KTAS 200537Z 18013KT 29/13 A2996 RMK A01 T02870125  RH  037%=      5-min Rain = 0
KTAS 200538Z 18013KT 29/13 A2996 RMK A01 T02860125  RH  037%=      5-min Rain = 0
KTAS 200539Z 17014KT 29/13 A2996 RMK A01 T02850126  RH  037%=      5-min Rain = 0
KTAS 200540Z 18015G21KT 29/13 A2996 RMK A01 T02850126  RH  037%=      5-min Rain = 0
KTAS 200541Z 18015KT 29/13 A2996 RMK A01 T02850126  RH  037%=      5-min Rain = 0
KTAS 200542Z 18016KT 29/13 A2996 RMK A01 T02850125  RH  037%=      5-min Rain = 0
KTAS 200543Z 17016G21KT 29/13 A2996 RMK A01 T02860126  RH  037%=      5-min Rain = 0
KTAS 200544Z 17013KT 29/13 A2996 RMK A01 T02860126  RH  037%=      5-min Rain = 0
KTAS 200545Z 18014KT 29/13 A2996 RMK A01 T02850126  RH  037%=      5-min Rain = 0
KTAS 200546Z 18013KT 29/13 A2996 RMK A01 T02850126  RH  038%=      5-min Rain = 0
KTAS 200547Z 18013KT 29/13 A2996 RMK A01 T02850127  RH  038%=      5-min Rain = 0
KTAS 200548Z 18017KT 29/13 A2996 RMK A01 T02850127  RH  038%=      5-min Rain = 0
KTAS 200549Z 18015KT 29/13 A2996 RMK A01 T02850126  RH  038%=      5-min Rain = 0
KTAS 200550Z 18014G20KT 29/13 A2996 RMK A01 T02850126  RH  038%=      5-min Rain = 0
KTAS 200551Z 18013KT 29/13 A2996 RMK A01 T02850126  RH  038%=      5-min Rain = 0
KTAS 200552Z 18014KT 28/13 A2996 RMK A01 T02840127  RH  038%=      5-min Rain = 0
KTAS 200553Z 18014KT 28/13 A2996 RMK A01 T02830127  RH  038%=      5-min Rain = 0
KTAS 200554Z 18013KT 28/13 A2996 RMK A01 T02830127  RH  038%=      5-min Rain = 0
KTAS 200555Z 18013KT 28/13 A2996 RMK A01 T02820127  RH  038%=      5-min Rain = 0
KTAS 200556Z 18012KT 28/13 A2996 RMK A01 T02820127  RH  038%=      5-min Rain = 0
KTAS 200557Z 18012KT 28/13 A2996 RMK A01 T02810128  RH  039%=      5-min Rain = 0
KTAS 200558Z 18014KT 28/13 A2996 RMK A01 T02810128  RH  039%=      5-min Rain = 0
KTAS 200559Z 18014KT 28/13 A2996 RMK A01 T02810127  RH  039%=      5-min Rain = 0
KTAS 200600Z 18013G18KT 28/13 A2996 RMK A01 T02810128  RH  039%=      5-min Rain = 0
KTAS 200601Z 18015KT 28/13 A2996 RMK A01 T02810128  RH  039%=      5-min Rain = 0
KTAS 200602Z 18016KT 28/13 A2996 RMK A01 T02820128  RH  039%=      5-min Rain = 0
KTAS 200603Z 17014KT 28/13 A2996 RMK A01 T02820128  RH  039%=      5-min Rain = 0
KTAS 200604Z 18016G21KT 28/13 A2996 RMK A01 T02820127  RH  038%=      5-min Rain = 0
KTAS 200605Z 18015KT 28/13 A2996 RMK A01 T02830128  RH  038%=      5-min Rain = 0
KTAS 200606Z 17016KT 28/13 A2995 RMK A01 T02820127  RH  038%=      5-min Rain = 0
KTAS 200607Z 18015KT 28/13 A2996 RMK A01 T02830128  RH  038%=      5-min Rain = 0
KTAS 200608Z 18012KT 28/13 A2996 RMK A01 T02820128  RH  039%=      5-min Rain = 0
KTAS 200609Z 18012KT 28/13 A2996 RMK A01 T02810128  RH  039%=      5-min Rain = 0
KTAS 200610Z 18011KT 28/13 A2996 RMK A01 T02800128  RH  039%=      5-min Rain = 0
KTAS 200611Z 18012KT 28/13 A2996 RMK A01 T02790128  RH  039%=      5-min Rain = 0
KTAS 200612Z 18013KT 28/13 A2996 RMK A01 T02790127  RH  039%=      5-min Rain = 0
KTAS 200613Z 17014KT 28/13 A2995 RMK A01 T02790127  RH  039%=      5-min Rain = 0
KTAS 200614Z 18012KT 28/13 A2995 RMK A01 T02790127  RH  039%=      5-min Rain = 0
KTAS 200615Z 18014KT 28/13 A2996 RMK A01 T02790128  RH  039%=      5-min Rain = 0
KTAS 200616Z 18012KT 28/13 A2996 RMK A01 T02790127  RH  039%=      5-min Rain = 0
KTAS 200617Z 18012KT 28/13 A2996 RMK A01 T02790128  RH  039%=      5-min Rain = 0
KTAS 200618Z 18013KT 28/13 A2996 RMK A01 T02780128  RH  039%=      5-min Rain = 0
KTAS 200619Z 18012KT 28/13 A2996 RMK A01 T02780128  RH  039%=      5-min Rain = 0
KTAS 200620Z 18012G17KT 28/13 A2996 RMK A01 T02780128  RH  040%=      5-min Rain = 0
KTAS 200621Z 18012KT 28/13 A2996 RMK A01 T02770128  RH  040%=      5-min Rain = 0
KTAS 200622Z 18013KT 28/13 A2996 RMK A01 T02770128  RH  040%=      5-min Rain = 0
KTAS 200623Z 18014KT 28/13 A2996 RMK A01 T02770128  RH  040%=      5-min Rain = 0
KTAS 200624Z 17013KT 28/13 A2996 RMK A01 T02780128  RH  039%=      5-min Rain = 0
KTAS 200625Z 18012KT 28/13 A2996 RMK A01 T02780128  RH  039%=      5-min Rain = 0
KTAS 200626Z 18012KT 28/13 A2996 RMK A01 T02770128  RH  040%=      5-min Rain = 0
KTAS 200627Z 18012KT 28/13 A2996 RMK A01 T02770129  RH  040%=      5-min Rain = 0
KTAS 200628Z 18014KT 28/13 A2996 RMK A01 T02770128  RH  040%=      5-min Rain = 0
KTAS 200629Z 18013KT 28/13 A2996 RMK A01 T02770128  RH  040%=      5-min Rain = 0
KTAS 200630Z 18012KT 28/13 A2996 RMK A01 T02770129  RH  040%=      5-min Rain = 0
KTAS 200631Z 18012KT 28/13 A2996 RMK A01 T02770128  RH  040%=      5-min Rain = 0
KTAS 200632Z 18014KT 28/13 A2996 RMK A01 T02770128  RH  040%=      5-min Rain = 0
KTAS 200633Z 18013KT 28/13 A2996 RMK A01 T02770128  RH  040%=      5-min Rain = 0
KTAS 200634Z 18011KT 28/13 A2996 RMK A01 T02770129  RH  040%=      5-min Rain = 0
KTAS 200635Z 18013KT 28/13 A2996 RMK A01 T02760129  RH  040%=      5-min Rain = 0
KTAS 200636Z 18012KT 28/13 A2996 RMK A01 T02760129  RH  040%=      5-min Rain = 0
KTAS 200637Z 18011KT 28/13 A2996 RMK A01 T02760129  RH  040%=      5-min Rain = 0
KTAS 200638Z 18012KT 28/13 A2996 RMK A01 T02750129  RH  040%=      5-min Rain = 0
KTAS 200639Z 18011KT 28/13 A2996 RMK A01 T02750129  RH  040%=      5-min Rain = 0
KTAS 200640Z 18012G17KT 27/13 A2996 RMK A01 T02740129  RH  041%=      5-min Rain = 0
KTAS 200641Z 18013KT 27/13 A2996 RMK A01 T02740129  RH  041%=      5-min Rain = 0
KTAS 200642Z 18013KT 27/13 A2996 RMK A01 T02740129  RH  041%=      5-min Rain = 0
KTAS 200643Z 18011KT 27/13 A2996 RMK A01 T02740129  RH  041%=      5-min Rain = 0
KTAS 200644Z 18010KT 27/13 A2996 RMK A01 T02740129  RH  041%=      5-min Rain = 0
KTAS 200645Z 18010KT 27/13 A2996 RMK A01 T02730129  RH  041%=      5-min Rain = 0
KTAS 200646Z 18012KT 27/13 A2996 RMK A01 T02720129  RH  041%=      5-min Rain = 0
KTAS 200647Z 18013KT 27/13 A2996 RMK A01 T02730129  RH  041%=      5-min Rain = 0
KTAS 200648Z 18011KT 27/13 A2996 RMK A01 T02730129  RH  041%=      5-min Rain = 0
KTAS 200649Z 18013KT 27/13 A2996 RMK A01 T02730130  RH  041%=      5-min Rain = 0
KTAS 200650Z 18012KT 27/13 A2996 RMK A01 T02730129  RH  041%=      5-min Rain = 0
KTAS 200651Z 18011KT 27/13 A2996 RMK A01 T02730130  RH  041%=      5-min Rain = 0
KTAS 200652Z 18011KT 27/13 A2996 RMK A01 T02720130  RH  041%=      5-min Rain = 0
KTAS 200653Z 18011KT 27/13 A2996 RMK A01 T02720130  RH  042%=      5-min Rain = 0
KTAS 200654Z 18012KT 27/13 A2996 RMK A01 T02710130  RH  042%=      5-min Rain = 0
KTAS 200655Z 18013KT 27/13 A2996 RMK A01 T02710129  RH  042%=      5-min Rain = 0
KTAS 200656Z 18010KT 27/13 A2996 RMK A01 T02710130  RH  042%=      5-min Rain = 0
KTAS 200657Z 18012KT 27/13 A2996 RMK A01 T02710130  RH  042%=      5-min Rain = 0
KTAS 200658Z 18011KT 27/13 A2996 RMK A01 T02700129  RH  042%=      5-min Rain = 0
KTAS 200659Z 18012KT 27/13 A2996 RMK A01 T02700130  RH  042%=      5-min Rain = 0
KTAS 200700Z 18013KT 27/13 A2996 RMK A01 T02700130  RH  042%=      5-min Rain = 0
KTAS 200701Z 18011KT 27/13 A2996 RMK A01 T02700130  RH  042%=      5-min Rain = 0
KTAS 200702Z 18013KT 27/13 A2996 RMK A01 T02700130  RH  042%=      5-min Rain = 0
KTAS 200703Z 18012KT 27/13 A2996 RMK A01 T02710130  RH  042%=      5-min Rain = 0
KTAS 200704Z 18013KT 27/13 A2996 RMK A01 T02700130  RH  042%=      5-min Rain = 0
KTAS 200705Z 18011KT 27/13 A2996 RMK A01 T02700130  RH  042%=      5-min Rain = 0
KTAS 200706Z 18012KT 27/13 A2996 RMK A01 T02690130  RH  042%=      5-min Rain = 0
KTAS 200707Z 18011KT 27/13 A2996 RMK A01 T02700130  RH  042%=      5-min Rain = 0
KTAS 200708Z 18011KT 27/13 A2996 RMK A01 T02690130  RH  042%=      5-min Rain = 0
KTAS 200709Z 18012KT 27/13 A2996 RMK A01 T02680130  RH  043%=      5-min Rain = 0
KTAS 200710Z 18011KT 27/13 A2996 RMK A01 T02680130  RH  043%=      5-min Rain = 0
KTAS 200711Z 18011KT 27/13 A2996 RMK A01 T02680130  RH  043%=      5-min Rain = 0
KTAS 200712Z 18010KT 27/13 A2996 RMK A01 T02680130  RH  043%=      5-min Rain = 0
KTAS 200713Z 18011KT 27/13 A2996 RMK A01 T02670130  RH  043%=      5-min Rain = 0
KTAS 200714Z 18011KT 27/13 A2996 RMK A01 T02670130  RH  043%=      5-min Rain = 0
KTAS 200715Z 18011KT 27/13 A2996 RMK A01 T02670130  RH  043%=      5-min Rain = 0
KTAS 200716Z 18010KT 27/13 A2996 RMK A01 T02670130  RH  043%=      5-min Rain = 0
KTAS 200717Z 18010KT 27/13 A2996 RMK A01 T02670130  RH  043%=      5-min Rain = 0
KTAS 200718Z 18010KT 27/13 A2996 RMK A01 T02660130  RH  043%=      5-min Rain = 0
KTAS 200719Z 18011KT 27/13 A2995 RMK A01 T02660130  RH  043%=      5-min Rain = 0
KTAS 200720Z 18011KT 27/13 A2995 RMK A01 T02660130  RH  043%=      5-min Rain = 0
KTAS 200721Z 18011KT 27/13 A2995 RMK A01 T02660130  RH  043%=      5-min Rain = 0
KTAS 200722Z 18011KT 27/13 A2995 RMK A01 T02650130  RH  043%=      5-min Rain = 0
KTAS 200723Z 18011KT 27/13 A2995 RMK A01 T02650130  RH  043%=      5-min Rain = 0
KTAS 200724Z 18010KT 27/13 A2995 RMK A01 T02650130  RH  043%=      5-min Rain = 0
KTAS 200725Z 18010KT 27/13 A2995 RMK A01 T02660131  RH  043%=      5-min Rain = 0
KTAS 200726Z 18010KT 27/13 A2995 RMK A01 T02650130  RH  043%=      5-min Rain = 0
KTAS 200727Z 18011KT 26/13 A2996 RMK A01 T02640130  RH  044%=      5-min Rain = 0
KTAS 200728Z 18010KT 26/13 A2996 RMK A01 T02630130  RH  044%=      5-min Rain = 0
KTAS 200729Z 18011KT 26/13 A2996 RMK A01 T02630130  RH  044%=      5-min Rain = 0
KTAS 200730Z 18011KT 26/13 A2996 RMK A01 T02640130  RH  044%=      5-min Rain = 0
KTAS 200731Z 18010KT 26/13 A2996 RMK A01 T02640130  RH  044%=      5-min Rain = 0
KTAS 200732Z 18010KT 26/13 A2996 RMK A01 T02630131  RH  044%=      5-min Rain = 0
KTAS 200733Z 18011KT 26/13 A2996 RMK A01 T02630131  RH  044%=      5-min Rain = 0
KTAS 200734Z 18010KT 26/13 A2996 RMK A01 T02630131  RH  044%=      5-min Rain = 0
KTAS 200735Z 18010KT 26/13 A2996 RMK A01 T02620131  RH  044%=      5-min Rain = 0
KTAS 200736Z 18011KT 26/13 A2995 RMK A01 T02620131  RH  044%=      5-min Rain = 0
KTAS 200737Z 18010KT 26/13 A2995 RMK A01 T02620131  RH  044%=      5-min Rain = 0
KTAS 200738Z 18010KT 26/13 A2995 RMK A01 T02620131  RH  044%=      5-min Rain = 0
KTAS 200739Z 18010KT 26/13 A2995 RMK A01 T02610131  RH  045%=      5-min Rain = 0
KTAS 200740Z 18011KT 26/13 A2995 RMK A01 T02610131  RH  045%=      5-min Rain = 0
KTAS 200741Z 18010KT 26/13 A2995 RMK A01 T02620132  RH  045%=      5-min Rain = 0
KTAS 200742Z 18010KT 26/13 A2995 RMK A01 T02610131  RH  045%=      5-min Rain = 0
KTAS 200743Z 18010KT 26/13 A2995 RMK A01 T02610132  RH  045%=      5-min Rain = 0
KTAS 200744Z 18011KT 26/13 A2995 RMK A01 T02600132  RH  045%=      5-min Rain = 0
KTAS 200745Z 18010KT 26/13 A2995 RMK A01 T02600132  RH  045%=      5-min Rain = 0
KTAS 200746Z 18010KT 26/13 A2995 RMK A01 T02600132  RH  045%=      5-min Rain = 0
KTAS 200747Z 18011KT 26/13 A2995 RMK A01 T02600132  RH  045%=      5-min Rain = 0
KTAS 200748Z 18010KT 26/13 A2995 RMK A01 T02600132  RH  045%=      5-min Rain = 0
KTAS 200749Z 18012KT 26/13 A2995 RMK A01 T02590132  RH  045%=      5-min Rain = 0
KTAS 200750Z 18011KT 26/13 A2995 RMK A01 T02600131  RH  045%=      5-min Rain = 0
KTAS 200751Z 18010KT 26/13 A2995 RMK A01 T02600131  RH  045%=      5-min Rain = 0
KTAS 200752Z 18011KT 26/13 A2995 RMK A01 T02600132  RH  045%=      5-min Rain = 0
KTAS 200753Z 18010KT 26/13 A2995 RMK A01 T02600132  RH  045%=      5-min Rain = 0
KTAS 200754Z 18011KT 26/13 A2995 RMK A01 T02590132  RH  045%=      5-min Rain = 0
KTAS 200755Z 18011KT 26/13 A2995 RMK A01 T02590131  RH  045%=      5-min Rain = 0
KTAS 200756Z 18010KT 26/13 A2995 RMK A01 T02590131  RH  045%=      5-min Rain = 0
KTAS 200757Z 18012KT 26/13 A2995 RMK A01 T02590132  RH  045%=      5-min Rain = 0
KTAS 200758Z 18011KT 26/13 A2995 RMK A01 T02590132  RH  045%=      5-min Rain = 0
KTAS 200759Z 18010KT 26/13 A2995 RMK A01 T02580132  RH  045%=      5-min Rain = 0
KTAS 200800Z 18011KT 26/13 A2995 RMK A01 T02580132  RH  046%=      5-min Rain = 0
KTAS 200801Z 18011KT 26/13 A2995 RMK A01 T02580132  RH  046%=      5-min Rain = 0
KTAS 200802Z 18011KT 26/13 A2995 RMK A01 T02580132  RH  046%=      5-min Rain = 0
KTAS 200803Z 18011KT 26/13 A2995 RMK A01 T02580132  RH  046%=      5-min Rain = 0
KTAS 200804Z 18010KT 26/13 A2995 RMK A01 T02580132  RH  046%=      5-min Rain = 0
KTAS 200805Z 18010KT 26/13 A2995 RMK A01 T02570132  RH  046%=      5-min Rain = 0
KTAS 200806Z 18011KT 26/13 A2995 RMK A01 T02570132  RH  046%=      5-min Rain = 0
KTAS 200807Z 18010KT 26/13 A2995 RMK A01 T02560132  RH  046%=      5-min Rain = 0
KTAS 200808Z 18010KT 26/13 A2995 RMK A01 T02560132  RH  046%=      5-min Rain = 0
KTAS 200809Z 18010KT 26/13 A2995 RMK A01 T02560132  RH  046%=      5-min Rain = 0
KTAS 200810Z 18009KT 26/13 A2995 RMK A01 T02550132  RH  046%=      5-min Rain = 0
KTAS 200811Z 18010G15KT 26/13 A2995 RMK A01 T02550132  RH  047%=      5-min Rain = 0
KTAS 200812Z 18009KT 25/13 A2995 RMK A01 T02540132  RH  047%=      5-min Rain = 0
KTAS 200813Z 18010KT 25/13 A2995 RMK A01 T02540132  RH  047%=      5-min Rain = 0
KTAS 200814Z 18011KT 25/13 A2995 RMK A01 T02540132  RH  047%=      5-min Rain = 0
KTAS 200815Z 18011KT 25/13 A2995 RMK A01 T02540133  RH  047%=      5-min Rain = 0
KTAS 200816Z 18010KT 26/13 A2995 RMK A01 T02550132  RH  047%=      5-min Rain = 0
KTAS 200817Z 18010KT 26/13 A2995 RMK A01 T02550133  RH  047%=      5-min Rain = 0
KTAS 200818Z 18010KT 25/13 A2995 RMK A01 T02540133  RH  047%=      5-min Rain = 0
KTAS 200819Z 17011KT 25/13 A2995 RMK A01 T02530132  RH  047%=      5-min Rain = 0
KTAS 200820Z 18010KT 25/13 A2995 RMK A01 T02530132  RH  047%=      5-min Rain = 0
KTAS 200821Z 18010KT 25/13 A2995 RMK A01 T02530132  RH  047%=      5-min Rain = 0
KTAS 200822Z 18010KT 25/13 A2995 RMK A01 T02520132  RH  047%=      5-min Rain = 0
KTAS 200823Z 17009KT 25/13 A2995 RMK A01 T02520132  RH  047%=      5-min Rain = 0
KTAS 200824Z 18009KT 25/13 A2995 RMK A01 T02510132  RH  048%=      5-min Rain = 0
KTAS 200825Z 17010KT 25/13 A2995 RMK A01 T02510133  RH  048%=      5-min Rain = 0
KTAS 200826Z 18010KT 25/13 A2995 RMK A01 T02500133  RH  048%=      5-min Rain = 0
KTAS 200827Z 17010KT 25/13 A2995 RMK A01 T02500133  RH  048%=      5-min Rain = 0
KTAS 200828Z 17009KT 25/13 A2995 RMK A01 T02490133  RH  048%=      5-min Rain = 0
KTAS 200829Z 18009KT 25/13 A2995 RMK A01 T02490133  RH  049%=      5-min Rain = 0
KTAS 200830Z 17010KT 25/13 A2995 RMK A01 T02480133  RH  049%=      5-min Rain = 0
KTAS 200831Z 17009KT 25/13 A2995 RMK A01 T02480133  RH  049%=      5-min Rain = 0
KTAS 200832Z 18009KT 25/13 A2995 RMK A01 T02470133  RH  049%=      5-min Rain = 0
KTAS 200833Z 17009KT 25/13 A2995 RMK A01 T02470133  RH  049%=      5-min Rain = 0
KTAS 200834Z 17009KT 25/13 A2995 RMK A01 T02470134  RH  049%=      5-min Rain = 0
KTAS 200835Z 17009KT 25/13 A2995 RMK A01 T02470134  RH  050%=      5-min Rain = 0
KTAS 200836Z 17010KT 25/14 A2995 RMK A01 T02470135  RH  050%=      5-min Rain = 0
KTAS 200837Z 17009KT 25/14 A2995 RMK A01 T02470135  RH  050%=      5-min Rain = 0
KTAS 200838Z 17008KT 25/14 A2995 RMK A01 T02470135  RH  050%=      5-min Rain = 0
KTAS 200839Z 17009KT 25/14 A2995 RMK A01 T02460135  RH  050%=      5-min Rain = 0
KTAS 200840Z 17008KT 25/14 A2995 RMK A01 T02460136  RH  050%=      5-min Rain = 0
KTAS 200841Z 17009KT 25/14 A2995 RMK A01 T02450135  RH  050%=      5-min Rain = 0
KTAS 200842Z 17009KT 25/14 A2995 RMK A01 T02450135  RH  050%=      5-min Rain = 0
KTAS 200843Z 17009KT 25/14 A2995 RMK A01 T02450135  RH  050%=      5-min Rain = 0
KTAS 200844Z 17009KT 25/14 A2995 RMK A01 T02450135  RH  050%=      5-min Rain = 0
KTAS 200845Z 18010KT 25/14 A2995 RMK A01 T02450135  RH  050%=      5-min Rain = 0
KTAS 200846Z 18008KT 25/14 A2995 RMK A01 T02450135  RH  050%=      5-min Rain = 0
KTAS 200847Z 18009KT 25/14 A2995 RMK A01 T02450135  RH  050%=      5-min Rain = 0
KTAS 200848Z 18009KT 24/14 A2995 RMK A01 T02440135  RH  050%=      5-min Rain = 0
KTAS 200849Z 18009KT 24/14 A2995 RMK A01 T02440135  RH  051%=      5-min Rain = 0
KTAS 200850Z 18010KT 24/14 A2995 RMK A01 T02430135  RH  051%=      5-min Rain = 0
KTAS 200851Z 17009KT 24/14 A2995 RMK A01 T02430135  RH  051%=      5-min Rain = 0
KTAS 200852Z 17009KT 24/14 A2995 RMK A01 T02430135  RH  051%=      5-min Rain = 0
KTAS 200853Z 17009KT 24/14 A2995 RMK A01 T02430135  RH  051%=      5-min Rain = 0
KTAS 200854Z 17010KT 24/14 A2995 RMK A01 T02430135  RH  051%=      5-min Rain = 0
KTAS 200855Z 17010KT 24/14 A2995 RMK A01 T02430135  RH  051%=      5-min Rain = 0
KTAS 200856Z 17010KT 24/14 A2995 RMK A01 T02440135  RH  051%=      5-min Rain = 0
KTAS 200857Z 17009KT 24/14 A2995 RMK A01 T02440135  RH  051%=      5-min Rain = 0
KTAS 200858Z 17009KT 24/14 A2995 RMK A01 T02430135  RH  051%=      5-min Rain = 0
KTAS 200859Z 17012KT 24/14 A2995 RMK A01 T02440135  RH  051%=      5-min Rain = 0
KTAS 200900Z 17011KT 25/14 A2995 RMK A01 T02450135  RH  050%=      5-min Rain = 0
KTAS 200901Z 17009KT 25/14 A2995 RMK A01 T02450136  RH  050%=      5-min Rain = 0
KTAS 200902Z 17010KT 25/14 A2995 RMK A01 T02450136  RH  051%=      5-min Rain = 0
KTAS 200903Z 17010KT 25/14 A2995 RMK A01 T02450136  RH  051%=      5-min Rain = 0
KTAS 200904Z 17010KT 25/14 A2995 RMK A01 T02450137  RH  051%=      5-min Rain = 0
KTAS 200905Z 17009KT 25/14 A2995 RMK A01 T02450137  RH  051%=      5-min Rain = 0
KTAS 200906Z 17010KT 25/14 A2995 RMK A01 T02450137  RH  051%=      5-min Rain = 0
KTAS 200907Z 17010KT 25/14 A2995 RMK A01 T02450138  RH  051%=      5-min Rain = 0
KTAS 200908Z 17011KT 25/14 A2995 RMK A01 T02450138  RH  051%=      5-min Rain = 0
KTAS 200909Z 17011KT 25/14 A2995 RMK A01 T02450138  RH  051%=      5-min Rain = 0
KTAS 200910Z 17009KT 25/14 A2995 RMK A01 T02450138  RH  051%=      5-min Rain = 0
KTAS 200911Z 17011KT 25/14 A2995 RMK A01 T02450139  RH  052%=      5-min Rain = 0
KTAS 200912Z 17010KT 25/14 A2995 RMK A01 T02450139  RH  052%=      5-min Rain = 0
KTAS 200913Z 17010KT 24/14 A2995 RMK A01 T02440139  RH  052%=      5-min Rain = 0
KTAS 200914Z 17010KT 24/14 A2995 RMK A01 T02440140  RH  052%=      5-min Rain = 0
KTAS 200915Z 17010KT 24/14 A2995 RMK A01 T02430140  RH  052%=      5-min Rain = 0
KTAS 200916Z 17010KT 24/14 A2995 RMK A01 T02430140  RH  052%=      5-min Rain = 0
KTAS 200917Z 17009KT 24/14 A2995 RMK A01 T02430140  RH  052%=      5-min Rain = 0
KTAS 200918Z 17009KT 24/14 A2995 RMK A01 T02430140  RH  053%=      5-min Rain = 0
KTAS 200919Z 17010KT 24/14 A2995 RMK A01 T02430141  RH  053%=      5-min Rain = 0
KTAS 200920Z 17009KT 24/14 A2995 RMK A01 T02430141  RH  053%=      5-min Rain = 0
KTAS 200921Z 18010KT 24/14 A2995 RMK A01 T02430141  RH  053%=      5-min Rain = 0
KTAS 200922Z 18010KT 24/14 A2995 RMK A01 T02430141  RH  053%=      5-min Rain = 0
KTAS 200923Z 17011KT 24/14 A2995 RMK A01 T02430141  RH  053%=      5-min Rain = 0
KTAS 200924Z 17010KT 24/14 A2995 RMK A01 T02440142  RH  053%=      5-min Rain = 0
KTAS 200925Z 18011KT 24/14 A2995 RMK A01 T02440142  RH  053%=      5-min Rain = 0
KTAS 200926Z 18011KT 24/14 A2995 RMK A01 T02440142  RH  053%=      5-min Rain = 0
KTAS 200927Z 17011KT 24/14 A2995 RMK A01 T02440142  RH  053%=      5-min Rain = 0
KTAS 200928Z 17010KT 24/14 A2995 RMK A01 T02440143  RH  053%=      5-min Rain = 0
KTAS 200929Z 17010KT 24/14 A2995 RMK A01 T02430143  RH  053%=      5-min Rain = 0
KTAS 200930Z 18011G16KT 24/14 A2995 RMK A01 T02430143  RH  054%=      5-min Rain = 0
KTAS 200931Z 17013KT 24/14 A2995 RMK A01 T02440143  RH  053%=      5-min Rain = 0
KTAS 200932Z 17011KT 25/14 A2995 RMK A01 T02450144  RH  053%=      5-min Rain = 0
KTAS 200933Z 17010KT 25/14 A2995 RMK A01 T02450144  RH  053%=      5-min Rain = 0
KTAS 200934Z 17010KT 24/14 A2995 RMK A01 T02440144  RH  054%=      5-min Rain = 0
KTAS 200935Z 17010KT 24/14 A2995 RMK A01 T02430144  RH  054%=      5-min Rain = 0
KTAS 200936Z 17010KT 24/14 A2995 RMK A01 T02430144  RH  054%=      5-min Rain = 0
KTAS 200937Z 17009KT 24/14 A2995 RMK A01 T02420144  RH  054%=      5-min Rain = 0
KTAS 200938Z 17010KT 24/15 A2995 RMK A01 T02410145  RH  055%=      5-min Rain = 0
KTAS 200939Z 17009KT 24/15 A2995 RMK A01 T02410145  RH  055%=      5-min Rain = 0
KTAS 200940Z 18010KT 24/15 A2995 RMK A01 T02400145  RH  055%=      5-min Rain = 0
KTAS 200941Z 18010KT 24/15 A2995 RMK A01 T02400145  RH  055%=      5-min Rain = 0
KTAS 200942Z 18010KT 24/15 A2995 RMK A01 T02400145  RH  055%=      5-min Rain = 0
KTAS 200943Z 18011KT 24/15 A2995 RMK A01 T02400145  RH  055%=      5-min Rain = 0
KTAS 200944Z 18010KT 24/15 A2995 RMK A01 T02400145  RH  055%=      5-min Rain = 0
KTAS 200945Z 17010KT 24/15 A2995 RMK A01 T02400145  RH  055%=      5-min Rain = 0
KTAS 200946Z 17011KT 24/15 A2995 RMK A01 T02400145  RH  055%=      5-min Rain = 0
KTAS 200947Z 17010KT 24/15 A2995 RMK A01 T02410145  RH  055%=      5-min Rain = 0
KTAS 200948Z 17011KT 24/15 A2995 RMK A01 T02410146  RH  055%=      5-min Rain = 0
KTAS 200949Z 17010KT 24/15 A2995 RMK A01 T02400146  RH  055%=      5-min Rain = 0
KTAS 200950Z 17010KT 24/15 A2995 RMK A01 T02400146  RH  056%=      5-min Rain = 0
KTAS 200951Z 17010KT 24/15 A2995 RMK A01 T02390146  RH  056%=      5-min Rain = 0
KTAS 200952Z 17011KT 24/15 A2995 RMK A01 T02390146  RH  056%=      5-min Rain = 0
KTAS 200953Z 17011KT 24/15 A2995 RMK A01 T02390146  RH  056%=      5-min Rain = 0
KTAS 200954Z 17011KT 24/15 A2995 RMK A01 T02390146  RH  056%=      5-min Rain = 0
KTAS 200955Z 17010KT 24/15 A2995 RMK A01 T02390146  RH  056%=      5-min Rain = 0
KTAS 200956Z 17010KT 24/15 A2995 RMK A01 T02390147  RH  056%=      5-min Rain = 0
KTAS 200957Z 17011KT 24/15 A2995 RMK A01 T02390147  RH  056%=      5-min Rain = 0
KTAS 200958Z 17009KT 24/15 A2995 RMK A01 T02390147  RH  056%=      5-min Rain = 0
KTAS 200959Z 17010KT 24/15 A2995 RMK A01 T02390147  RH  057%=      5-min Rain = 0
KTAS 201000Z 17011KT 24/15 A2995 RMK A01 T02390148  RH  057%=      5-min Rain = 0
KTAS 201001Z 17011KT 24/15 A2995 RMK A01 T02390148  RH  057%=      5-min Rain = 0
KTAS 201002Z 17011KT 24/15 A2995 RMK A01 T02390148  RH  057%=      5-min Rain = 0
KTAS 201003Z 17010KT 24/15 A2995 RMK A01 T02390149  RH  057%=      5-min Rain = 0
KTAS 201004Z 17010KT 24/15 A2995 RMK A01 T02390149  RH  057%=      5-min Rain = 0
KTAS 201005Z 16010KT 24/15 A2995 RMK A01 T02390150  RH  057%=      5-min Rain = 0
KTAS 201006Z 16010KT 24/15 A2995 RMK A01 T02390150  RH  058%=      5-min Rain = 0
KTAS 201007Z 17011KT 24/15 A2995 RMK A01 T02390150  RH  058%=      5-min Rain = 0
KTAS 201008Z 16012G17KT 24/15 A2995 RMK A01 T02390151  RH  058%=      5-min Rain = 0
KTAS 201009Z 17013KT 24/15 A2995 RMK A01 T02390151  RH  058%=      5-min Rain = 0
KTAS 201010Z 17011KT 24/15 A2995 RMK A01 T02400152  RH  058%=      5-min Rain = 0
KTAS 201011Z 16011KT 24/15 A2995 RMK A01 T02390151  RH  058%=      5-min Rain = 0
KTAS 201012Z 17011KT 24/15 A2995 RMK A01 T02390152  RH  058%=      5-min Rain = 0
KTAS 201013Z 17013KT 24/15 A2995 RMK A01 T02390152  RH  058%=      5-min Rain = 0
KTAS 201014Z 17011KT 24/15 A2995 RMK A01 T02390152  RH  058%=      5-min Rain = 0
KTAS 201015Z 17013KT 24/15 A2995 RMK A01 T02390153  RH  058%=      5-min Rain = 0
KTAS 201016Z 17013KT 24/15 A2995 RMK A01 T02390153  RH  058%=      5-min Rain = 0
KTAS 201017Z 17012KT 24/15 A2995 RMK A01 T02390153  RH  059%=      5-min Rain = 0
KTAS 201018Z 17011KT 24/15 A2995 RMK A01 T02390153  RH  059%=      5-min Rain = 0
KTAS 201019Z 17011KT 24/15 A2995 RMK A01 T02390153  RH  059%=      5-min Rain = 0
KTAS 201020Z 17011KT 24/15 A2995 RMK A01 T02390153  RH  059%=      5-min Rain = 0
KTAS 201021Z 17012KT 24/15 A2995 RMK A01 T02380153  RH  059%=      5-min Rain = 0
KTAS 201022Z 17011KT 24/15 A2995 RMK A01 T02380154  RH  059%=      5-min Rain = 0
KTAS 201023Z 17012KT 24/15 A2995 RMK A01 T02380154  RH  059%=      5-min Rain = 0
KTAS 201024Z 17012KT 24/15 A2995 RMK A01 T02380154  RH  059%=      5-min Rain = 0
KTAS 201025Z 17011KT 24/16 A2995 RMK A01 T02390155  RH  059%=      5-min Rain = 0
KTAS 201026Z 17011KT 24/16 A2995 RMK A01 T02390155  RH  059%=      5-min Rain = 0
KTAS 201027Z 17012KT 24/16 A2995 RMK A01 T02390155  RH  059%=      5-min Rain = 0
KTAS 201028Z 17012KT 24/16 A2995 RMK A01 T02390155  RH  059%=      5-min Rain = 0
KTAS 201029Z 17011KT 24/16 A2995 RMK A01 T02390155  RH  059%=      5-min Rain = 0
KTAS 201030Z 17011KT 24/16 A2995 RMK A01 T02390155  RH  060%=      5-min Rain = 0
KTAS 201031Z 17012KT 24/16 A2995 RMK A01 T02380155  RH  060%=      5-min Rain = 0
KTAS 201032Z 17011KT 24/16 A2995 RMK A01 T02380156  RH  060%=      5-min Rain = 0
KTAS 201033Z 17011KT 24/16 A2995 RMK A01 T02390156  RH  060%=      5-min Rain = 0
KTAS 201034Z 17011KT 24/16 A2995 RMK A01 T02380156  RH  060%=      5-min Rain = 0
KTAS 201035Z 17011G17KT 24/16 A2995 RMK A01 T02380156  RH  060%=      5-min Rain = 0
KTAS 201036Z 17012KT 24/16 A2995 RMK A01 T02380157  RH  060%=      5-min Rain = 0
KTAS 201037Z 17012KT 24/16 A2995 RMK A01 T02390157  RH  060%=      5-min Rain = 0
KTAS 201038Z 17011KT 24/16 A2995 RMK A01 T02380157  RH  060%=      5-min Rain = 0
KTAS 201039Z 17012KT 24/16 A2995 RMK A01 T02380157  RH  060%=      5-min Rain = 0
KTAS 201040Z 17012KT 24/16 A2995 RMK A01 T02380157  RH  061%=      5-min Rain = 0
KTAS 201041Z 17012KT 24/16 A2995 RMK A01 T02380157  RH  061%=      5-min Rain = 0
KTAS 201042Z 18012KT 24/16 A2995 RMK A01 T02390158  RH  060%=      5-min Rain = 0
KTAS 201043Z 17012KT 24/16 A2995 RMK A01 T02390158  RH  060%=      5-min Rain = 0
KTAS 201044Z 18012KT 24/16 A2995 RMK A01 T02380158  RH  061%=      5-min Rain = 0
KTAS 201045Z 18012KT 24/16 A2995 RMK A01 T02390158  RH  061%=      5-min Rain = 0
KTAS 201046Z 17012KT 24/16 A2995 RMK A01 T02380158  RH  061%=      5-min Rain = 0
KTAS 201047Z 17012KT 24/16 A2995 RMK A01 T02370158  RH  061%=      5-min Rain = 0
KTAS 201048Z 17012G17KT 24/16 A2995 RMK A01 T02370158  RH  061%=      5-min Rain = 0
KTAS 201049Z 17012KT 24/16 A2995 RMK A01 T02370158  RH  061%=      5-min Rain = 0
KTAS 201050Z 17011KT 24/16 A2995 RMK A01 T02380159  RH  061%=      5-min Rain = 0
KTAS 201051Z 17011KT 24/16 A2995 RMK A01 T02380159  RH  061%=      5-min Rain = 0
KTAS 201052Z 17012KT 24/16 A2995 RMK A01 T02370159  RH  061%=      5-min Rain = 0
KTAS 201053Z 17012KT 24/16 A2995 RMK A01 T02370159  RH  061%=      5-min Rain = 0
KTAS 201054Z 17013G18KT 24/16 A2995 RMK A01 T02370159  RH  061%=      5-min Rain = 0
KTAS 201055Z 17014KT 24/16 A2995 RMK A01 T02380159  RH  061%=      5-min Rain = 0
KTAS 201056Z 17013G18KT 24/16 A2995 RMK A01 T02390160  RH  061%=      5-min Rain = 0
KTAS 201057Z 17012KT 24/16 A2995 RMK A01 T02380160  RH  061%=      5-min Rain = 0
KTAS 201058Z 17012G17KT 24/16 A2995 RMK A01 T02380160  RH  062%=      5-min Rain = 0
KTAS 201059Z 18011KT 24/16 A2995 RMK A01 T02380160  RH  062%=      5-min Rain = 0
KTAS 201100Z 17010KT 24/16 A2995 RMK A01 T02370160  RH  062%=      5-min Rain = 0
KTAS 201101Z 18014KT 24/16 A2995 RMK A01 T02370160  RH  062%=      5-min Rain = 0
KTAS 201102Z 17012KT 24/16 A2995 RMK A01 T02370160  RH  062%=      5-min Rain = 0
KTAS 201103Z 17013KT 24/16 A2995 RMK A01 T02380160  RH  062%=      5-min Rain = 0
KTAS 201104Z 17013KT 24/16 A2995 RMK A01 T02380161  RH  062%=      5-min Rain = 0
KTAS 201105Z 17012G18KT 24/16 A2995 RMK A01 T02380161  RH  062%=      5-min Rain = 0
KTAS 201106Z 17013KT 24/16 A2995 RMK A01 T02380161  RH  062%=      5-min Rain = 0
KTAS 201107Z 18011KT 24/16 A2995 RMK A01 T02370161  RH  062%=      5-min Rain = 0
KTAS 201108Z 17011KT 24/16 A2995 RMK A01 T02370161  RH  062%=      5-min Rain = 0
KTAS 201109Z 17012KT 24/16 A2995 RMK A01 T02360161  RH  063%=      5-min Rain = 0
KTAS 201110Z 17012KT 24/16 A2995 RMK A01 T02360161  RH  063%=      5-min Rain = 0
KTAS 201111Z 18012KT 24/16 A2995 RMK A01 T02360162  RH  063%=      5-min Rain = 0
KTAS 201112Z 17012KT 24/16 A2995 RMK A01 T02360162  RH  063%=      5-min Rain = 0
KTAS 201113Z 17013KT 24/16 A2995 RMK A01 T02360162  RH  063%=      5-min Rain = 0
KTAS 201114Z 18012KT 24/16 A2995 RMK A01 T02360162  RH  063%=      5-min Rain = 0
KTAS 201115Z 17013KT 24/16 A2995 RMK A01 T02360162  RH  063%=      5-min Rain = 0
KTAS 201116Z 17012KT 24/16 A2995 RMK A01 T02360162  RH  063%=      5-min Rain = 0
KTAS 201117Z 17012KT 24/16 A2995 RMK A01 T02360163  RH  063%=      5-min Rain = 0
KTAS 201118Z 17013KT 24/16 A2995 RMK A01 T02360163  RH  064%=      5-min Rain = 0
KTAS 201119Z 17012KT 24/16 A2995 RMK A01 T02360163  RH  063%=      5-min Rain = 0
KTAS 201120Z 17013KT 24/16 A2995 RMK A01 T02360163  RH  063%=      5-min Rain = 0
KTAS 201121Z 17012KT 24/16 A2995 RMK A01 T02360163  RH  063%=      5-min Rain = 0
KTAS 201122Z 17013KT 24/16 A2995 RMK A01 T02360163  RH  064%=      5-min Rain = 0
KTAS 201123Z 17011KT 24/16 A2995 RMK A01 T02360163  RH  064%=      5-min Rain = 0
KTAS 201124Z 17010KT 24/16 A2995 RMK A01 T02360164  RH  064%=      5-min Rain = 0
KTAS 201125Z 17012KT 23/16 A2995 RMK A01 T02340163  RH  064%=      5-min Rain = 0
KTAS 201126Z 17011KT 23/16 A2995 RMK A01 T02340164  RH  065%=      5-min Rain = 0
KTAS 201127Z 17010KT 23/16 A2995 RMK A01 T02340164  RH  065%=      5-min Rain = 0
KTAS 201128Z 17011KT 23/16 A2995 RMK A01 T02330164  RH  065%=      5-min Rain = 0
KTAS 201129Z 17012G17KT 23/16 A2995 RMK A01 T02330164  RH  065%=      5-min Rain = 0
KTAS 201130Z 17011KT 23/16 A2995 RMK A01 T02330164  RH  065%=      5-min Rain = 0
KTAS 201131Z 17013KT 23/16 A2995 RMK A01 T02330164  RH  065%=      5-min Rain = 0
KTAS 201132Z 17014KT 23/17 A2995 RMK A01 T02330165  RH  065%=      5-min Rain = 0
KTAS 201133Z 18013KT 23/16 A2995 RMK A01 T02340164  RH  065%=      5-min Rain = 0
KTAS 201134Z 17012KT 23/17 A2995 RMK A01 T02340165  RH  065%=      5-min Rain = 0
KTAS 201135Z 17012KT 23/17 A2995 RMK A01 T02340165  RH  065%=      5-min Rain = 0
KTAS 201136Z 17013KT 23/17 A2995 RMK A01 T02340165  RH  065%=      5-min Rain = 0
KTAS 201137Z 17011KT 23/17 A2995 RMK A01 T02330165  RH  065%=      5-min Rain = 0
KTAS 201138Z 17012KT 23/17 A2995 RMK A01 T02330165  RH  066%=      5-min Rain = 0
KTAS 201139Z 17013KT 23/17 A2995 RMK A01 T02330165  RH  066%=      5-min Rain = 0
KTAS 201140Z 17012KT 23/17 A2995 RMK A01 T02330165  RH  066%=      5-min Rain = 0
KTAS 201141Z 17010KT 23/17 A2995 RMK A01 T02330166  RH  066%=      5-min Rain = 0
KTAS 201142Z 17011KT 23/17 A2995 RMK A01 T02320166  RH  066%=      5-min Rain = 0
KTAS 201143Z 17011KT 23/17 A2995 RMK A01 T02320166  RH  066%=      5-min Rain = 0
KTAS 201144Z 17010KT 23/17 A2995 RMK A01 T02320166  RH  066%=      5-min Rain = 0
KTAS 201145Z 17011KT 23/17 A2995 RMK A01 T02310166  RH  067%=      5-min Rain = 0
KTAS 201146Z 17010KT 23/17 A2995 RMK A01 T02310166  RH  067%=      5-min Rain = 0
KTAS 201147Z 17011KT 23/17 A2995 RMK A01 T02310166  RH  067%=      5-min Rain = 0
KTAS 201148Z 17012KT 23/17 A2995 RMK A01 T02310167  RH  067%=      5-min Rain = 0
KTAS 201149Z 17012KT 23/17 A2995 RMK A01 T02310167  RH  067%=      5-min Rain = 0
KTAS 201150Z 17011KT 23/17 A2995 RMK A01 T02310167  RH  067%=      5-min Rain = 0
KTAS 201151Z 17012KT 23/17 A2995 RMK A01 T02310167  RH  067%=      5-min Rain = 0
KTAS 201152Z 17011KT 23/17 A2995 RMK A01 T02310167  RH  067%=      5-min Rain = 0
KTAS 201153Z 17011KT 23/17 A2995 RMK A01 T02310167  RH  067%=      5-min Rain = 0
KTAS 201154Z 17011KT 23/17 A2995 RMK A01 T02310167  RH  067%=      5-min Rain = 0
KTAS 201155Z 17011G16KT 23/17 A2995 RMK A01 T02310167  RH  067%=      5-min Rain = 0
KTAS 201156Z 17011G16KT 23/17 A2995 RMK A01 T02310167  RH  067%=      5-min Rain = 0
KTAS 201157Z 17011KT 23/17 A2995 RMK A01 T02310167  RH  067%=      5-min Rain = 0
KTAS 201158Z 18010KT 23/17 A2995 RMK A01 T02310167  RH  067%=      5-min Rain = 0
KTAS 201159Z 17012KT 23/17 A2995 RMK A01 T02310168  RH  068%=      5-min Rain = 0
KTAS 201200Z 17011KT 23/17 A2995 RMK A01 T02310168  RH  068%=      5-min Rain = 0
KTAS 201201Z 17012KT 23/17 A2995 RMK A01 T02310168  RH  068%=      5-min Rain = 0
KTAS 201202Z 17011KT 23/17 A2995 RMK A01 T02310168  RH  068%=      5-min Rain = 0
KTAS 201203Z 18012KT 23/17 A2995 RMK A01 T02310168  RH  068%=      5-min Rain = 0
KTAS 201204Z 18011KT 23/17 A2995 RMK A01 T02310168  RH  068%=      5-min Rain = 0
KTAS 201205Z 17012KT 23/17 A2995 RMK A01 T02320169  RH  068%=      5-min Rain = 0
KTAS 201206Z 18010KT 23/17 A2995 RMK A01 T02320169  RH  068%=      5-min Rain = 0
KTAS 201207Z 18011KT 23/17 A2995 RMK A01 T02320169  RH  068%=      5-min Rain = 0
KTAS 201208Z 17010KT 23/17 A2995 RMK A01 T02320169  RH  068%=      5-min Rain = 0
KTAS 201209Z 17009KT 23/17 A2995 RMK A01 T02320169  RH  068%=      5-min Rain = 0
KTAS 201210Z 17011KT 23/17 A2995 RMK A01 T02310169  RH  068%=      5-min Rain = 0
KTAS 201211Z 17010KT 23/17 A2995 RMK A01 T02310169  RH  068%=      5-min Rain = 0
KTAS 201212Z 18012KT 23/17 A2995 RMK A01 T02310169  RH  068%=      5-min Rain = 0
KTAS 201213Z 17011KT 23/17 A2995 RMK A01 T02320170  RH  068%=      5-min Rain = 0
KTAS 201214Z 17011KT 23/17 A2995 RMK A01 T02320170  RH  068%=      5-min Rain = 0
KTAS 201215Z 17011KT 23/17 A2995 RMK A01 T02320170  RH  068%=      5-min Rain = 0
KTAS 201216Z 17012KT 23/17 A2995 RMK A01 T02330170  RH  068%=      5-min Rain = 0
KTAS 201217Z 17011KT 23/17 A2995 RMK A01 T02330170  RH  068%=      5-min Rain = 0
KTAS 201218Z 18011KT 23/17 A2996 RMK A01 T02330170  RH  068%=      5-min Rain = 0
KTAS 201219Z 17012KT 23/17 A2995 RMK A01 T02330171  RH  068%=      5-min Rain = 0
KTAS 201220Z 17010KT 23/17 A2995 RMK A01 T02330171  RH  068%=      5-min Rain = 0
KTAS 201221Z 17011KT 23/17 A2995 RMK A01 T02330171  RH  068%=      5-min Rain = 0
KTAS 201222Z 17011KT 23/17 A2995 RMK A01 T02330171  RH  068%=      5-min Rain = 0
KTAS 201223Z 17011KT 23/17 A2995 RMK A01 T02330171  RH  068%=      5-min Rain = 0
KTAS 201224Z 18010KT 23/17 A2995 RMK A01 T02330172  RH  068%=      5-min Rain = 0
KTAS 201225Z 17010KT 23/17 A2995 RMK A01 T02330172  RH  068%=      5-min Rain = 0
KTAS 201226Z 17010KT 23/17 A2995 RMK A01 T02330172  RH  068%=      5-min Rain = 0
KTAS 201227Z 17012KT 23/17 A2995 RMK A01 T02330172  RH  068%=      5-min Rain = 0
KTAS 201228Z 18012KT 23/17 A2995 RMK A01 T02340172  RH  068%=      5-min Rain = 0
KTAS 201229Z 17011KT 23/17 A2995 RMK A01 T02340172  RH  068%=      5-min Rain = 0
KTAS 201230Z 17013KT 23/17 A2995 RMK A01 T02340172  RH  068%=      5-min Rain = 0
KTAS 201231Z 17011KT 24/17 A2995 RMK A01 T02350172  RH  068%=      5-min Rain = 0
KTAS 201232Z 17012KT 24/17 A2995 RMK A01 T02350173  RH  068%=      5-min Rain = 0
KTAS 201233Z 17013KT 24/17 A2995 RMK A01 T02350173  RH  068%=      5-min Rain = 0
KTAS 201234Z 17011KT 24/17 A2995 RMK A01 T02350173  RH  068%=      5-min Rain = 0
KTAS 201235Z 17013KT 24/17 A2995 RMK A01 T02350173  RH  068%=      5-min Rain = 0
KTAS 201236Z 18012KT 24/17 A2995 RMK A01 T02350173  RH  068%=      5-min Rain = 0
KTAS 201237Z 17013KT 24/17 A2995 RMK A01 T02360174  RH  068%=      5-min Rain = 0
KTAS 201238Z 17013KT 24/17 A2996 RMK A01 T02360174  RH  068%=      5-min Rain = 0
KTAS 201239Z 17010KT 24/17 A2996 RMK A01 T02360174  RH  068%=      5-min Rain = 0
KTAS 201240Z 17011KT 24/17 A2996 RMK A01 T02360174  RH  068%=      5-min Rain = 0
KTAS 201241Z 17013KT 24/18 A2996 RMK A01 T02370175  RH  068%=      5-min Rain = 0
KTAS 201242Z 17012KT 24/18 A2996 RMK A01 T02370175  RH  068%=      5-min Rain = 0
KTAS 201243Z 17011KT 24/18 A2996 RMK A01 T02370175  RH  068%=      5-min Rain = 0
KTAS 201244Z 17013KT 24/18 A2996 RMK A01 T02370175  RH  068%=      5-min Rain = 0
KTAS 201245Z 17011KT 24/18 A2996 RMK A01 T02380175  RH  068%=      5-min Rain = 0
KTAS 201246Z 17011KT 24/18 A2996 RMK A01 T02380176  RH  068%=      5-min Rain = 0
KTAS 201247Z 17010KT 24/18 A2996 RMK A01 T02380176  RH  068%=      5-min Rain = 0
KTAS 201248Z 17012KT 24/18 A2996 RMK A01 T02390176  RH  068%=      5-min Rain = 0
KTAS 201249Z 17011KT 24/18 A2996 RMK A01 T02390176  RH  068%=      5-min Rain = 0
KTAS 201250Z 17011KT 24/18 A2996 RMK A01 T02390176  RH  068%=      5-min Rain = 0
KTAS 201251Z 17013KT 24/18 A2996 RMK A01 T02390176  RH  068%=      5-min Rain = 0
KTAS 201252Z 18013KT 24/18 A2996 RMK A01 T02390176  RH  068%=      5-min Rain = 0
KTAS 201253Z 17012KT 24/18 A2996 RMK A01 T02400176  RH  068%=      5-min Rain = 0
KTAS 201254Z 18013KT 24/18 A2996 RMK A01 T02410177  RH  067%=      5-min Rain = 0
KTAS 201255Z 17013KT 24/18 A2996 RMK A01 T02410177  RH  067%=      5-min Rain = 0
KTAS 201256Z 17016KT 24/18 A2996 RMK A01 T02410176  RH  067%=      5-min Rain = 0
KTAS 201257Z 18013KT 24/18 A2996 RMK A01 T02410176  RH  067%=      5-min Rain = 0
KTAS 201258Z 17012KT 24/18 A2996 RMK A01 T02410177  RH  067%=      5-min Rain = 0
KTAS 201259Z 18013KT 24/18 A2996 RMK A01 T02410177  RH  067%=      5-min Rain = 0
KTAS 201300Z 17013KT 24/18 A2996 RMK A01 T02410177  RH  067%=      5-min Rain = 0
KTAS 201301Z 17011KT 24/18 A2996 RMK A01 T02420178  RH  068%=      5-min Rain = 0
KTAS 201302Z 17013G18KT 24/18 A2996 RMK A01 T02420178  RH  067%=      5-min Rain = 0
KTAS 201303Z 17014KT 24/18 A2996 RMK A01 T02420177  RH  067%=      5-min Rain = 0
KTAS 201304Z 17014KT 24/18 A2996 RMK A01 T02420178  RH  067%=      5-min Rain = 0
KTAS 201305Z 17015KT 24/18 A2996 RMK A01 T02430177  RH  067%=      5-min Rain = 0
KTAS 201306Z 17012KT 24/18 A2996 RMK A01 T02430178  RH  067%=      5-min Rain = 0
KTAS 201307Z 18012KT 24/18 A2996 RMK A01 T02440179  RH  067%=      5-min Rain = 0
KTAS 201308Z 17014KT 25/18 A2996 RMK A01 T02450178  RH  066%=      5-min Rain = 0
KTAS 201309Z 17012KT 25/18 A2996 RMK A01 T02450178  RH  066%=      5-min Rain = 0
KTAS 201310Z 17012KT 25/18 A2996 RMK A01 T02450178  RH  066%=      5-min Rain = 0
KTAS 201311Z 17013G18KT 25/18 A2996 RMK A01 T02460179  RH  066%=      5-min Rain = 0
KTAS 201312Z 17014KT 25/18 A2996 RMK A01 T02460178  RH  066%=      5-min Rain = 0
KTAS 201313Z 17012KT 25/18 A2996 RMK A01 T02460178  RH  066%=      5-min Rain = 0
KTAS 201314Z 17012KT 25/18 A2996 RMK A01 T02460179  RH  066%=      5-min Rain = 0
KTAS 201315Z 18014KT 25/18 A2996 RMK A01 T02470179  RH  066%=      5-min Rain = 0
KTAS 201316Z 17012KT 25/18 A2996 RMK A01 T02470179  RH  066%=      5-min Rain = 0
KTAS 201317Z 17012KT 25/18 A2996 RMK A01 T02480179  RH  066%=      5-min Rain = 0
KTAS 201318Z 18015KT 25/18 A2996 RMK A01 T02480179  RH  065%=      5-min Rain = 0
KTAS 201319Z 18016KT 25/18 A2996 RMK A01 T02480178  RH  065%=      5-min Rain = 0
KTAS 201320Z 18015KT 25/18 A2996 RMK A01 T02480178  RH  065%=      5-min Rain = 0
KTAS 201321Z 17013G18KT 25/18 A2996 RMK A01 T02480178  RH  065%=      5-min Rain = 0
KTAS 201322Z 18014KT 25/18 A2996 RMK A01 T02480178  RH  065%=      5-min Rain = 0
KTAS 201323Z 18014KT 25/18 A2996 RMK A01 T02490179  RH  065%=      5-min Rain = 0
KTAS 201324Z 17013KT 25/18 A2996 RMK A01 T02500179  RH  065%=      5-min Rain = 0
KTAS 201325Z 17014KT 25/18 A2996 RMK A01 T02500177  RH  064%=      5-min Rain = 0
KTAS 201326Z 18017KT 25/18 A2996 RMK A01 T02500177  RH  064%=      5-min Rain = 0
KTAS 201327Z 18017KT 25/18 A2996 RMK A01 T02490177  RH  064%=      5-min Rain = 0
KTAS 201328Z 18014KT 25/18 A2996 RMK A01 T02490177  RH  064%=      5-min Rain = 0
KTAS 201329Z 17016KT 25/18 A2996 RMK A01 T02500177  RH  064%=      5-min Rain = 0
KTAS 201330Z 18016KT 25/18 A2996 RMK A01 T02500178  RH  064%=      5-min Rain = 0
KTAS 201331Z 18016KT 25/18 A2996 RMK A01 T02510177  RH  064%=      5-min Rain = 0
KTAS 201332Z 18014KT 25/18 A2996 RMK A01 T02510177  RH  063%=      5-min Rain = 0
KTAS 201333Z 17013KT 25/18 A2996 RMK A01 T02520178  RH  063%=      5-min Rain = 0
KTAS 201334Z 17015G20KT 25/18 A2996 RMK A01 T02530178  RH  063%=      5-min Rain = 0
KTAS 201335Z 17014KT 25/18 A2996 RMK A01 T02530178  RH  063%=      5-min Rain = 0
KTAS 201336Z 17016KT 25/18 A2996 RMK A01 T02530177  RH  063%=      5-min Rain = 0
KTAS 201337Z 17015G20KT 25/18 A2996 RMK A01 T02530177  RH  063%=      5-min Rain = 0
KTAS 201338Z 18015KT 25/18 A2996 RMK A01 T02530177  RH  063%=      5-min Rain = 0
KTAS 201339Z 17014KT 25/18 A2996 RMK A01 T02540178  RH  063%=      5-min Rain = 0
KTAS 201340Z 17015KT 26/18 A2996 RMK A01 T02550178  RH  062%=      5-min Rain = 0
KTAS 201341Z 17013KT 26/18 A2996 RMK A01 T02550178  RH  062%=      5-min Rain = 0
KTAS 201342Z 17016KT 26/18 A2996 RMK A01 T02550177  RH  062%=      5-min Rain = 0
KTAS 201343Z 18016KT 26/18 A2997 RMK A01 T02550177  RH  062%=      5-min Rain = 0
KTAS 201344Z 18014KT 25/18 A2997 RMK A01 T02540177  RH  062%=      5-min Rain = 0
KTAS 201345Z 17013KT 26/18 A2997 RMK A01 T02550178  RH  062%=      5-min Rain = 0
KTAS 201346Z 17014KT 26/18 A2996 RMK A01 T02560178  RH  062%=      5-min Rain = 0
KTAS 201347Z 18013G19KT 26/18 A2996 RMK A01 T02570179  RH  062%=      5-min Rain = 0
KTAS 201348Z 17016KT 26/18 A2996 RMK A01 T02580178  RH  061%=      5-min Rain = 0
KTAS 201349Z 18014KT 26/18 A2996 RMK A01 T02580177  RH  061%=      5-min Rain = 0
KTAS 201350Z 17013G18KT 26/18 A2996 RMK A01 T02580177  RH  061%=      5-min Rain = 0
KTAS 201351Z 18015KT 26/18 A2996 RMK A01 T02580177  RH  061%=      5-min Rain = 0
KTAS 201352Z 18014KT 26/18 A2997 RMK A01 T02580177  RH  061%=      5-min Rain = 0
KTAS 201353Z 17014KT 26/18 A2997 RMK A01 T02590177  RH  061%=      5-min Rain = 0
KTAS 201354Z 17014KT 26/18 A2997 RMK A01 T02600178  RH  060%=      5-min Rain = 0
KTAS 201355Z 18014KT 26/18 A2997 RMK A01 T02600177  RH  060%=      5-min Rain = 0
KTAS 201356Z 18014KT 26/18 A2997 RMK A01 T02600176  RH  060%=      5-min Rain = 0
KTAS 201357Z 18013KT 26/18 A2997 RMK A01 T02600177  RH  060%=      5-min Rain = 0
KTAS 201358Z 17013KT 26/18 A2997 RMK A01 T02610177  RH  060%=      5-min Rain = 0
KTAS 201359Z 17014KT 26/18 A2997 RMK A01 T02620177  RH  060%=      5-min Rain = 0
KTAS 201400Z 18013KT 26/18 A2997 RMK A01 T02620177  RH  059%=      5-min Rain = 0
KTAS 201401Z 19012KT 26/18 A2997 RMK A01 T02630177  RH  059%=      5-min Rain = 0
KTAS 201402Z 17012KT 27/18 A2997 RMK A01 T02660178  RH  059%=      5-min Rain = 0
KTAS 201403Z 18015KT 27/18 A2997 RMK A01 T02660177  RH  058%=      5-min Rain = 0
KTAS 201404Z 17012G17KT 26/18 A2997 RMK A01 T02640177  RH  059%=      5-min Rain = 0
KTAS 201405Z 18012G17KT 26/18 A2997 RMK A01 T02640177  RH  059%=      5-min Rain = 0
KTAS 201406Z 18016KT 26/18 A2997 RMK A01 T02640176  RH  058%=      5-min Rain = 0
KTAS 201407Z 18016KT 26/17 A2997 RMK A01 T02640174  RH  058%=      5-min Rain = 0
KTAS 201408Z 19014KT 26/17 A2997 RMK A01 T02630174  RH  058%=      5-min Rain = 0
KTAS 201409Z 18014KT 27/18 A2997 RMK A01 T02650175  RH  058%=      5-min Rain = 0
KTAS 201410Z 18016KT 27/18 A2997 RMK A01 T02660175  RH  057%=      5-min Rain = 0
KTAS 201411Z 18015KT 27/17 A2997 RMK A01 T02670174  RH  057%=      5-min Rain = 0
KTAS 201412Z 18014KT 27/17 A2997 RMK A01 T02670174  RH  057%=      5-min Rain = 0
KTAS 201413Z 17017KT 27/17 A2997 RMK A01 T02670174  RH  057%=      5-min Rain = 0
KTAS 201414Z 18016KT 27/17 A2997 RMK A01 T02670173  RH  056%=      5-min Rain = 0
KTAS 201415Z 18017KT 27/17 A2997 RMK A01 T02660173  RH  057%=      5-min Rain = 0
KTAS 201416Z 19017KT 27/17 A2997 RMK A01 T02670173  RH  056%=      5-min Rain = 0
KTAS 201417Z 18015KT 27/17 A2997 RMK A01 T02670173  RH  056%=      5-min Rain = 0
KTAS 201418Z 17011KT 27/18 A2997 RMK A01 T02690175  RH  056%=      5-min Rain = 0
KTAS 201419Z 17012KT 27/18 A2997 RMK A01 T02710176  RH  056%=      5-min Rain = 0
KTAS 201420Z 18012G17KT 27/18 A2997 RMK A01 T02730177  RH  056%=      5-min Rain = 0
KTAS 201421Z 18015KT 27/17 A2997 RMK A01 T02720174  RH  055%=      5-min Rain = 0
KTAS 201422Z 19014KT 27/18 A2997 RMK A01 T02710175  RH  056%=      5-min Rain = 0
KTAS 201423Z 18015KT 27/17 A2996 RMK A01 T02710174  RH  055%=      5-min Rain = 0
KTAS 201424Z 18015KT 27/17 A2996 RMK A01 T02710174  RH  055%=      5-min Rain = 0
KTAS 201425Z 18016KT 27/17 A2997 RMK A01 T02710174  RH  055%=      5-min Rain = 0
KTAS 201426Z 18016KT 27/17 A2997 RMK A01 T02710173  RH  055%=      5-min Rain = 0
KTAS 201427Z 17016KT 27/17 A2997 RMK A01 T02720174  RH  055%=      5-min Rain = 0
KTAS 201428Z 17017KT 27/17 A2997 RMK A01 T02720174  RH  055%=      5-min Rain = 0
KTAS 201429Z 18014KT 27/17 A2997 RMK A01 T02710174  RH  055%=      5-min Rain = 0
KTAS 201430Z 17013G18KT 27/17 A2997 RMK A01 T02720174  RH  055%=      5-min Rain = 0
KTAS 201431Z 18014KT 27/17 A2997 RMK A01 T02720174  RH  055%=      5-min Rain = 0
KTAS 201432Z 18015KT 27/17 A2997 RMK A01 T02730174  RH  055%=      5-min Rain = 0
KTAS 201433Z 17013KT 27/18 A2997 RMK A01 T02740175  RH  055%=      5-min Rain = 0
KTAS 201434Z 17012KT 28/18 A2997 RMK A01 T02760175  RH  054%=      5-min Rain = 0
KTAS 201435Z 18012G17KT 28/18 A2997 RMK A01 T02770175  RH  054%=      5-min Rain = 0
KTAS 201436Z 18015G20KT 28/18 A2997 RMK A01 T02780175  RH  053%=      5-min Rain = 0
KTAS 201437Z 17017KT 28/17 A2997 RMK A01 T02770173  RH  053%=      5-min Rain = 0
KTAS 201438Z 18016KT 28/17 A2997 RMK A01 T02750173  RH  054%=      5-min Rain = 0
KTAS 201439Z 17018KT 27/17 A2997 RMK A01 T02730172  RH  054%=      5-min Rain = 0
KTAS 201440Z 17016KT 27/17 A2997 RMK A01 T02720173  RH  054%=      5-min Rain = 0
KTAS 201441Z 17014G19KT 27/17 A2997 RMK A01 T02730174  RH  055%=      5-min Rain = 0
KTAS 201442Z 17018KT 27/17 A2997 RMK A01 T02740173  RH  054%=      5-min Rain = 0
KTAS 201443Z 17014KT 27/17 A2997 RMK A01 T02740174  RH  054%=      5-min Rain = 0
KTAS 201444Z 17015G20KT 28/17 A2997 RMK A01 T02760174  RH  054%=      5-min Rain = 0
KTAS 201445Z 17014KT 28/17 A2997 RMK A01 T02760173  RH  053%=      5-min Rain = 0
KTAS 201446Z 17015KT 28/17 A2997 RMK A01 T02770172  RH  053%=      5-min Rain = 0
KTAS 201447Z 18016KT 28/17 A2997 RMK A01 T02770172  RH  053%=      5-min Rain = 0
KTAS 201448Z 18017KT 28/17 A2997 RMK A01 T02770172  RH  053%=      5-min Rain = 0
KTAS 201449Z 18014KT 28/17 A2997 RMK A01 T02770172  RH  053%=      5-min Rain = 0
KTAS 201450Z 19014KT 28/17 A2997 RMK A01 T02770172  RH  053%=      5-min Rain = 0
KTAS 201451Z 19014KT 28/17 A2997 RMK A01 T02790172  RH  052%=      5-min Rain = 0
KTAS 201452Z 18016KT 28/17 A2997 RMK A01 T02810172  RH  052%=      5-min Rain = 0
KTAS 201453Z 18017KT 28/17 A2997 RMK A01 T02810172  RH  052%=      5-min Rain = 0
KTAS 201454Z 18015KT 28/17 A2997 RMK A01 T02800172  RH  052%=      5-min Rain = 0
KTAS 201455Z 17017KT 28/17 A2997 RMK A01 T02810172  RH  052%=      5-min Rain = 0
KTAS 201456Z 17017KT 28/17 A2997 RMK A01 T02800172  RH  052%=      5-min Rain = 0
KTAS 201457Z 18015KT 28/17 A2997 RMK A01 T02800172  RH  052%=      5-min Rain = 0
KTAS 201458Z 18014KT 28/17 A2997 RMK A01 T02800173  RH  052%=      5-min Rain = 0
KTAS 201459Z 17014KT 28/17 A2996 RMK A01 T02800173  RH  052%=      5-min Rain = 0
KTAS 201500Z 17016KT 28/17 A2996 RMK A01 T02810172  RH  052%=      5-min Rain = 0
KTAS 201501Z 18016KT 28/17 A2996 RMK A01 T02810172  RH  051%=      5-min Rain = 0
KTAS 201502Z 17016KT 28/17 A2996 RMK A01 T02820172  RH  051%=      5-min Rain = 0
KTAS 201503Z 17017KT 28/17 A2996 RMK A01 T02820171  RH  051%=      5-min Rain = 0
KTAS 201504Z 18014KT 28/17 A2996 RMK A01 T02830171  RH  051%=      5-min Rain = 0
KTAS 201505Z 18016KT 29/17 A2996 RMK A01 T02850171  RH  050%=      5-min Rain = 0
KTAS 201506Z 18018KT 28/17 A2996 RMK A01 T02840170  RH  050%=      5-min Rain = 0
KTAS 201507Z 18013KT 28/17 A2996 RMK A01 T02820171  RH  051%=      5-min Rain = 0
KTAS 201508Z 19014KT 29/17 A2996 RMK A01 T02850172  RH  051%=      5-min Rain = 0
KTAS 201509Z 18014KT 29/17 A2996 RMK A01 T02870172  RH  050%=      5-min Rain = 0
KTAS 201510Z 19012G17KT 29/18 A2996 RMK A01 T02880175  RH  050%=      5-min Rain = 0
KTAS 201511Z 18015KT 29/17 A2996 RMK A01 T02890173  RH  049%=      5-min Rain = 0
KTAS 201512Z 18015KT 29/17 A2996 RMK A01 T02880171  RH  049%=      5-min Rain = 0
KTAS 201513Z 18016KT 29/17 A2996 RMK A01 T02870172  RH  050%=      5-min Rain = 0
KTAS 201514Z 18016KT 29/17 A2996 RMK A01 T02870172  RH  050%=      5-min Rain = 0
KTAS 201515Z 18016KT 29/17 A2996 RMK A01 T02870172  RH  050%=      5-min Rain = 0
KTAS 201516Z 18014KT 29/17 A2996 RMK A01 T02860172  RH  050%=      5-min Rain = 0
KTAS 201517Z 17015KT 29/17 A2996 RMK A01 T02860174  RH  051%=      5-min Rain = 0
KTAS 201518Z 19016KT 29/17 A2996 RMK A01 T02880174  RH  050%=      5-min Rain = 0
KTAS 201519Z 19015KT 29/17 A2996 RMK A01 T02880171  RH  049%=      5-min Rain = 0
KTAS 201520Z 18016KT 29/17 A2996 RMK A01 T02890172  RH  049%=      5-min Rain = 0
KTAS 201521Z 18017KT 29/17 A2996 RMK A01 T02890170  RH  049%=      5-min Rain = 0
KTAS 201522Z 19016KT 29/17 A2996 RMK A01 T02880170  RH  049%=      5-min Rain = 0
KTAS 201523Z 19016KT 29/17 A2996 RMK A01 T02880170  RH  049%=      5-min Rain = 0
KTAS 201524Z 17015KT 29/17 A2996 RMK A01 T02890172  RH  049%=      5-min Rain = 0
KTAS 201525Z 18014KT 29/17 A2996 RMK A01 T02890172  RH  049%=      5-min Rain = 0
KTAS 201526Z 17017KT 29/17 A2996 RMK A01 T02900173  RH  049%=      5-min Rain = 0
KTAS 201527Z 18016KT 29/17 A2996 RMK A01 T02890172  RH  049%=      5-min Rain = 0
KTAS 201528Z 17014KT 29/17 A2996 RMK A01 T02890172  RH  049%=      5-min Rain = 0
KTAS 201529Z 18012KT 29/17 A2996 RMK A01 T02920174  RH  049%=      5-min Rain = 0
KTAS 201530Z 17013KT 30/17 A2996 RMK A01 T02950174  RH  048%=      5-min Rain = 0
KTAS 201531Z 18014KT 29/17 A2996 RMK A01 T02940174  RH  048%=      5-min Rain = 0
KTAS 201532Z 19013KT 30/17 A2996 RMK A01 T02950174  RH  048%=      5-min Rain = 0
KTAS 201533Z 18014KT 30/17 A2996 RMK A01 T02960172  RH  047%=      5-min Rain = 0
KTAS 201534Z 19015KT 30/17 A2996 RMK A01 T02950170  RH  047%=      5-min Rain = 0
KTAS 201535Z 19015KT 29/17 A2996 RMK A01 T02920171  RH  048%=      5-min Rain = 0
KTAS 201536Z 18013KT 29/17 A2996 RMK A01 T02920172  RH  049%=      5-min Rain = 0
KTAS 201537Z 18016KT 29/17 A2996 RMK A01 T02930172  RH  048%=      5-min Rain = 0
KTAS 201538Z 19013KT 29/17 A2996 RMK A01 T02940171  RH  048%=      5-min Rain = 0
KTAS 201539Z 17012KT 30/17 A2996 RMK A01 T02960173  RH  048%=      5-min Rain = 0
KTAS 201540Z 17014G19KT 30/18 A2996 RMK A01 T02980175  RH  047%=      5-min Rain = 0
KTAS 201541Z 18015KT 30/17 A2996 RMK A01 T02970173  RH  047%=      5-min Rain = 0
KTAS 201542Z 18014KT 30/17 A2996 RMK A01 T02950173  RH  048%=      5-min Rain = 0
KTAS 201543Z 19012KT 30/17 A2996 RMK A01 T02970173  RH  047%=      5-min Rain = 0
KTAS 201544Z 18012G17KT 30/17 A2996 RMK A01 T02980174  RH  047%=      5-min Rain = 0
KTAS 201545Z 18014KT 30/17 A2996 RMK A01 T02980173  RH  047%=      5-min Rain = 0
KTAS 201546Z 18014KT 30/17 A2996 RMK A01 T02980174  RH  048%=      5-min Rain = 0
KTAS 201547Z 18014KT 30/18 A2996 RMK A01 T02990175  RH  047%=      5-min Rain = 0
KTAS 201548Z 17017KT 30/17 A2996 RMK A01 T03000172  RH  046%=      5-min Rain = 0
KTAS 201549Z 19013KT 30/17 A2996 RMK A01 T03000171  RH  046%=      5-min Rain = 0
KTAS 201550Z 18011KT 30/17 A2996 RMK A01 T03020172  RH  046%=      5-min Rain = 0
KTAS 201551Z 18012G18KT 30/17 A2996 RMK A01 T03040174  RH  046%=      5-min Rain = 0
KTAS 201552Z 18014KT 30/17 A2996 RMK A01 T03030173  RH  046%=      5-min Rain = 0
KTAS 201553Z 19014KT 30/17 A2996 RMK A01 T03010172  RH  046%=      5-min Rain = 0
KTAS 201554Z 19016KT 30/17 A2996 RMK A01 T03020172  RH  046%=      5-min Rain = 0
KTAS 201555Z 19015KT 30/17 A2996 RMK A01 T03020172  RH  046%=      5-min Rain = 0
KTAS 201556Z 19014KT 30/17 A2996 RMK A01 T03010173  RH  046%=      5-min Rain = 0
KTAS 201557Z 18013KT 30/17 A2996 RMK A01 T03010172  RH  046%=      5-min Rain = 0
KTAS 201558Z 18013KT 30/17 A2996 RMK A01 T03010173  RH  046%=      5-min Rain = 0
KTAS 201559Z 17014KT 30/17 A2996 RMK A01 T03010173  RH  046%=      5-min Rain = 0
KTAS 201600Z 17015KT 30/17 A2996 RMK A01 T03010172  RH  046%=      5-min Rain = 0
KTAS 201601Z 17013KT 30/17 A2996 RMK A01 T03000173  RH  047%=      5-min Rain = 0
KTAS 201602Z 18012KT 30/18 A2996 RMK A01 T03030175  RH  046%=      5-min Rain = 0
KTAS 201603Z 17013KT 31/17 A2996 RMK A01 T03060174  RH  045%=      5-min Rain = 0
KTAS 201604Z 18013KT 31/17 A2996 RMK A01 T03080174  RH  045%=      5-min Rain = 0
KTAS 201605Z 18015KT 31/17 A2996 RMK A01 T03070172  RH  044%=      5-min Rain = 0
KTAS 201606Z 19012KT 31/17 A2996 RMK A01 T03050172  RH  045%=      5-min Rain = 0
KTAS 201607Z 20013KT 31/17 A2996 RMK A01 T03070174  RH  045%=      5-min Rain = 0
KTAS 201608Z 19014KT 31/17 A2996 RMK A01 T03070174  RH  045%=      5-min Rain = 0
KTAS 201609Z 18011KT 31/18 A2996 RMK A01 T03080176  RH  045%=      5-min Rain = 0
KTAS 201610Z 18015KT 31/17 A2996 RMK A01 T03100174  RH  044%=      5-min Rain = 0
KTAS 201611Z 18014KT 31/17 A2996 RMK A01 T03090172  RH  044%=      5-min Rain = 0
KTAS 201612Z 18014KT 31/17 A2996 RMK A01 T03080171  RH  044%=      5-min Rain = 0
KTAS 201613Z 17011KT 31/17 A2996 RMK A01 T03070172  RH  044%=      5-min Rain = 0
KTAS 201614Z 17014KT 31/17 A2996 RMK A01 T03090173  RH  044%=      5-min Rain = 0
KTAS 201615Z 17014KT 31/17 A2996 RMK A01 T03080173  RH  044%=      5-min Rain = 0
KTAS 201616Z 17011KT 31/17 A2996 RMK A01 T03070173  RH  045%=      5-min Rain = 0
KTAS 201617Z 17015KT 31/17 A2996 RMK A01 T03090174  RH  044%=      5-min Rain = 0
KTAS 201618Z 17012KT 31/17 A2996 RMK A01 T03080173  RH  044%=      5-min Rain = 0
KTAS 201619Z 17013KT 31/18 A2996 RMK A01 T03100175  RH  045%=      5-min Rain = 0
KTAS 201620Z 17010KT 31/18 A2996 RMK A01 T03110175  RH  044%=      5-min Rain = 0
KTAS 201621Z 16013KT 31/18 A2996 RMK A01 T03120175  RH  044%=      5-min Rain = 0
KTAS 201622Z 16014KT 31/18 A2996 RMK A01 T03100175  RH  044%=      5-min Rain = 0
KTAS 201623Z 16012KT 31/17 A2996 RMK A01 T03090174  RH  044%=      5-min Rain = 0
KTAS 201624Z 17014KT 31/18 A2996 RMK A01 T03090175  RH  045%=      5-min Rain = 0
KTAS 201625Z 17011KT 31/17 A2996 RMK A01 T03100174  RH  044%=      5-min Rain = 0
KTAS 201626Z 17012KT 31/18 A2996 RMK A01 T03110175  RH  044%=      5-min Rain = 0
KTAS 201627Z 19012KT 31/18 A2996 RMK A01 T03110176  RH  044%=      5-min Rain = 0
KTAS 201628Z 17015KT 31/18 A2996 RMK A01 T03130176  RH  044%=      5-min Rain = 0
KTAS 201629Z 18013KT 32/18 A2996 RMK A01 T03150176  RH  043%=      5-min Rain = 0
KTAS 201630Z 18011KT 32/17 A2996 RMK A01 T03150173  RH  043%=      5-min Rain = 0
KTAS 201631Z 18012KT 31/17 A2996 RMK A01 T03130174  RH  043%=      5-min Rain = 0
KTAS 201632Z 17011KT 32/18 A2996 RMK A01 T03150178  RH  044%=      5-min Rain = 0
KTAS 201633Z 17013KT 32/18 A2996 RMK A01 T03170175  RH  043%=      5-min Rain = 0
KTAS 201634Z 17011KT 32/18 A2996 RMK A01 T03150176  RH  043%=      5-min Rain = 0
KTAS 201635Z 17015G21KT 32/18 A2996 RMK A01 T03160176  RH  043%=      5-min Rain = 0
KTAS 201636Z 18013KT 32/17 A2996 RMK A01 T03150173  RH  043%=      5-min Rain = 0
KTAS 201637Z 17012KT 31/17 A2996 RMK A01 T03140173  RH  043%=      5-min Rain = 0
KTAS 201638Z 17013KT 32/17 A2996 RMK A01 T03150174  RH  043%=      5-min Rain = 0
KTAS 201639Z 19013KT 32/17 A2996 RMK A01 T03170171  RH  042%=      5-min Rain = 0
KTAS 201640Z 18012KT 32/17 A2996 RMK A01 T03170168  RH  041%=      5-min Rain = 0
KTAS 201641Z 18013KT 32/17 A2996 RMK A01 T03170171  RH  041%=      5-min Rain = 0
KTAS 201642Z 18012KT 32/17 A2996 RMK A01 T03180171  RH  041%=      5-min Rain = 0
KTAS 201643Z 19015KT 32/17 A2996 RMK A01 T03190170  RH  041%=      5-min Rain = 0
KTAS 201644Z 18012KT 32/17 A2996 RMK A01 T03200171  RH  041%=      5-min Rain = 0
KTAS 201645Z 17014G19KT 32/17 A2996 RMK A01 T03200174  RH  042%=      5-min Rain = 0
KTAS 201646Z 17012G18KT 32/18 A2996 RMK A01 T03200176  RH  042%=      5-min Rain = 0
KTAS 201647Z 17014KT 32/17 A2996 RMK A01 T03210174  RH  041%=      5-min Rain = 0
KTAS 201648Z 18012KT 32/17 A2996 RMK A01 T03180173  RH  042%=      5-min Rain = 0
KTAS 201649Z 19014KT 32/17 A2996 RMK A01 T03180174  RH  042%=      5-min Rain = 0
KTAS 201650Z 18011KT 32/17 A2996 RMK A01 T03190172  RH  041%=      5-min Rain = 0
KTAS 201651Z 17012KT 32/17 A2996 RMK A01 T03210173  RH  041%=      5-min Rain = 0
KTAS 201652Z 17013KT 32/17 A2996 RMK A01 T03210173  RH  041%=      5-min Rain = 0
KTAS 201653Z 17014G20KT 32/17 A2996 RMK A01 T03210173  RH  041%=      5-min Rain = 0
KTAS 201654Z 17015KT 32/17 A2996 RMK A01 T03200173  RH  042%=      5-min Rain = 0
KTAS 201655Z 18014KT 32/17 A2996 RMK A01 T03220171  RH  041%=      5-min Rain = 0
KTAS 201656Z 18014KT 32/17 A2996 RMK A01 T03210170  RH  040%=      5-min Rain = 0
KTAS 201657Z 19014KT 32/17 A2996 RMK A01 T03200171  RH  041%=      5-min Rain = 0
KTAS 201658Z 19011KT 32/17 A2996 RMK A01 T03220173  RH  041%=      5-min Rain = 0
KTAS 201659Z 18009KT 33/18 A2996 RMK A01 T03270175  RH  040%=      5-min Rain = 0
KTAS 201700Z 18011G16KT 33/18 A2996 RMK A01 T03290176  RH  040%=      5-min Rain = 0
KTAS 201701Z 17014KT 33/18 A2996 RMK A01 T03280175  RH  040%=      5-min Rain = 0
KTAS 201702Z 17010KT 33/17 A2996 RMK A01 T03270172  RH  040%=      5-min Rain = 0
KTAS 201703Z 18012KT 33/17 A2996 RMK A01 T03260172  RH  040%=      5-min Rain = 0
KTAS 201704Z 18012G17KT 32/17 A2996 RMK A01 T03240172  RH  040%=      5-min Rain = 0
KTAS 201705Z 18016KT 33/17 A2996 RMK A01 T03270171  RH  039%=      5-min Rain = 0
KTAS 201706Z 18011KT 33/17 A2996 RMK A01 T03260171  RH  040%=      5-min Rain = 0
KTAS 201707Z 18013KT 33/17 A2996 RMK A01 T03250174  RH  041%=      5-min Rain = 0
KTAS 201708Z 18010KT 33/18 A2996 RMK A01 T03250175  RH  041%=      5-min Rain = 0
KTAS 201709Z 17013KT 33/17 A2996 RMK A01 T03280172  RH  039%=      5-min Rain = 0
KTAS 201710Z 16013KT 33/17 A2996 RMK A01 T03280172  RH  040%=      5-min Rain = 0
KTAS 201711Z 16015KT 33/17 A2996 RMK A01 T03270174  RH  040%=      5-min Rain = 0
KTAS 201712Z 16013KT 33/17 A2996 RMK A01 T03260173  RH  040%=      5-min Rain = 0
KTAS 201713Z 17011KT 33/18 A2996 RMK A01 T03250175  RH  041%=      5-min Rain = 0
KTAS 201714Z 19012KT 33/17 A2996 RMK A01 T03280174  RH  040%=      5-min Rain = 0
KTAS 201715Z 18010KT 33/17 A2996 RMK A01 T03290173  RH  039%=      5-min Rain = 0
KTAS 201716Z 19010KT 33/17 A2996 RMK A01 T03310173  RH  039%=      5-min Rain = 0
KTAS 201717Z 16011KT 33/18 A2996 RMK A01 T03320175  RH  039%=      5-min Rain = 0
KTAS 201718Z 16013KT 33/18 A2996 RMK A01 T03330176  RH  039%=      5-min Rain = 0
KTAS 201719Z 18014KT 33/18 A2996 RMK A01 T03340175  RH  039%=      5-min Rain = 0
KTAS 201720Z 16012KT 33/17 A2996 RMK A01 T03300173  RH  039%=      5-min Rain = 0
KTAS 201721Z 15012KT 33/17 A2996 RMK A01 T03300174  RH  039%=      5-min Rain = 0
KTAS 201722Z 16012KT 33/18 A2996 RMK A01 T03320175  RH  039%=      5-min Rain = 0
KTAS 201723Z 17014KT 33/18 A2996 RMK A01 T03330175  RH  039%=      5-min Rain = 0
KTAS 201724Z 18014KT 33/17 A2996 RMK A01 T03310173  RH  039%=      5-min Rain = 0
KTAS 201725Z 18011KT 33/17 A2996 RMK A01 T03300170  RH  038%=      5-min Rain = 0
KTAS 201726Z 18011G16KT 33/17 A2996 RMK A01 T03330172  RH  038%=      5-min Rain = 0
KTAS 201727Z 18012KT 34/17 A2996 RMK A01 T03350173  RH  038%=      5-min Rain = 0
KTAS 201728Z 17009KT 34/18 A2996 RMK A01 T03380176  RH  038%=      5-min Rain = 0
KTAS 201729Z 16011KT 34/18 A2996 RMK A01 T03400175  RH  037%=      5-min Rain = 0
KTAS 201730Z 16011KT 34/17 A2996 RMK A01 T03420172  RH  037%=      5-min Rain = 0
KTAS 201731Z 17011KT 34/17 A2996 RMK A01 T03390173  RH  037%=      5-min Rain = 0
KTAS 201732Z 17014KT 34/17 A2996 RMK A01 T03390172  RH  037%=      5-min Rain = 0
KTAS 201733Z 16012KT 34/17 A2996 RMK A01 T03360171  RH  037%=      5-min Rain = 0
KTAS 201734Z 18009KT 34/17 A2996 RMK A01 T03350173  RH  038%=      5-min Rain = 0
KTAS 201735Z 17012KT 34/17 A2996 RMK A01 T03370171  RH  037%=      5-min Rain = 0
KTAS 201736Z 16013KT 34/17 A2996 RMK A01 T03360171  RH  037%=      5-min Rain = 0
KTAS 201737Z 17010KT 34/17 A2996 RMK A01 T03350172  RH  038%=      5-min Rain = 0
KTAS 201738Z 17009KT 34/17 A2996 RMK A01 T03380174  RH  038%=      5-min Rain = 0
KTAS 201739Z 16010KT 34/17 A2996 RMK A01 T03390174  RH  038%=      5-min Rain = 0
KTAS 201740Z 17012G17KT 34/18 A2996 RMK A01 T03370175  RH  038%=      5-min Rain = 0
KTAS 201741Z 16011KT 34/18 A2996 RMK A01 T03390175  RH  038%=      5-min Rain = 0
KTAS 201742Z 16012KT 34/17 A2996 RMK A01 T03380172  RH  037%=      5-min Rain = 0
KTAS 201743Z 16011KT 34/17 A2996 RMK A01 T03350172  RH  038%=      5-min Rain = 0
KTAS 201744Z 16011KT 34/18 A2996 RMK A01 T03380176  RH  038%=      5-min Rain = 0
KTAS 201745Z 17013KT 34/18 A2996 RMK A01 T03420176  RH  037%=      5-min Rain = 0
KTAS 201746Z 17013KT 34/17 A2996 RMK A01 T03410173  RH  037%=      5-min Rain = 0
KTAS 201747Z 17009KT 34/17 A2996 RMK A01 T03380174  RH  038%=      5-min Rain = 0
KTAS 201748Z 17009KT 34/17 A2996 RMK A01 T03380173  RH  037%=      5-min Rain = 0
KTAS 201749Z 17011KT 34/17 A2996 RMK A01 T03370172  RH  037%=      5-min Rain = 0
KTAS 201750Z 17009KT 34/17 A2996 RMK A01 T03370171  RH  037%=      5-min Rain = 0
KTAS 201751Z 17013KT 34/17 A2996 RMK A01 T03380172  RH  037%=      5-min Rain = 0
KTAS 201752Z 17013KT 34/17 A2996 RMK A01 T03380172  RH  037%=      5-min Rain = 0
KTAS 201753Z 16014KT 34/17 A2995 RMK A01 T03390173  RH  037%=      5-min Rain = 0
KTAS 201754Z 16012KT 34/17 A2995 RMK A01 T03400172  RH  037%=      5-min Rain = 0
KTAS 201755Z 17014KT 34/17 A2995 RMK A01 T03410172  RH  037%=      5-min Rain = 0
KTAS 201756Z 16013KT 34/17 A2995 RMK A01 T03420173  RH  037%=      5-min Rain = 0
KTAS 201757Z 17010G15KT 35/17 A2995 RMK A01 T03450173  RH  036%=      5-min Rain = 0
KTAS 201758Z 18011KT 35/17 A2995 RMK A01 T03480172  RH  035%=      5-min Rain = 0
KTAS 201759Z 18011KT 34/17 A2995 RMK A01 T03440171  RH  036%=      5-min Rain = 0
KTAS 201800Z 17010KT 34/17 A2995 RMK A01 T03420172  RH  036%=      5-min Rain = 0
KTAS 201801Z 16011KT 34/17 A2995 RMK A01 T03400172  RH  037%=      5-min Rain = 0
KTAS 201802Z 17009KT 34/17 A2995 RMK A01 T03410173  RH  037%=      5-min Rain = 0
KTAS 201803Z 16012KT 35/18 A2995 RMK A01 T03460175  RH  036%=      5-min Rain = 0
KTAS 201804Z 20011KT 35/17 A2995 RMK A01 T03500171  RH  035%=      5-min Rain = 0
KTAS 201805Z 20010G15KT 35/17 A2995 RMK A01 T03480167  RH  034%=      5-min Rain = 0
KTAS 201806Z 20008KT 35/17 A2995 RMK A01 T03480167  RH  034%=      5-min Rain = 0
KTAS 201807Z 20008KT 35/17 A2995 RMK A01 T03490166  RH  034%=      5-min Rain = 0
KTAS 201808Z 20009KT 35/17 A2995 RMK A01 T03510166  RH  033%=      5-min Rain = 0
KTAS 201809Z 17010KT 35/17 A2995 RMK A01 T03470166  RH  034%=      5-min Rain = 0
KTAS 201810Z 17008KT 35/17 A2995 RMK A01 T03470167  RH  034%=      5-min Rain = 0
KTAS 201811Z 17014KT 35/17 A2995 RMK A01 T03500169  RH  034%=      5-min Rain = 0
KTAS 201812Z 16011KT 35/17 A2995 RMK A01 T03500168  RH  034%=      5-min Rain = 0
KTAS 201813Z 17011KT 35/17 A2995 RMK A01 T03480171  RH  035%=      5-min Rain = 0
KTAS 201814Z 19013KT 35/17 A2995 RMK A01 T03490169  RH  034%=      5-min Rain = 0
KTAS 201815Z 19013KT 35/17 A2995 RMK A01 T03470170  RH  035%=      5-min Rain = 0
KTAS 201816Z 19014KT 35/17 A2995 RMK A01 T03500169  RH  034%=      5-min Rain = 0
KTAS 201817Z 18008KT 35/17 A2995 RMK A01 T03460169  RH  035%=      5-min Rain = 0
KTAS 201818Z 17011G16KT 35/17 A2995 RMK A01 T03500171  RH  035%=      5-min Rain = 0
KTAS 201819Z 18012G17KT 35/17 A2995 RMK A01 T03500169  RH  034%=      5-min Rain = 0
KTAS 201820Z 19013KT 35/17 A2995 RMK A01 T03480167  RH  034%=      5-min Rain = 0
KTAS 201821Z 16012G19KT 35/17 A2995 RMK A01 T03470169  RH  035%=      5-min Rain = 0
KTAS 201822Z 16013KT 35/17 A2995 RMK A01 T03480167  RH  034%=      5-min Rain = 0
KTAS 201823Z 15010KT 35/17 A2995 RMK A01 T03470166  RH  034%=      5-min Rain = 0
KTAS 201824Z 17010KT 35/17 A2995 RMK A01 T03460167  RH  034%=      5-min Rain = 0
KTAS 201825Z 16008KT 35/17 A2995 RMK A01 T03470168  RH  035%=      5-min Rain = 0
KTAS 201826Z 19010KT 35/17 A2995 RMK A01 T03500166  RH  034%=      5-min Rain = 0
KTAS 201827Z 18009G14KT 35/17 A2995 RMK A01 T03500165  RH  033%=      5-min Rain = 0
KTAS 201828Z 19012KT 35/17 A2995 RMK A01 T03510167  RH  034%=      5-min Rain = 0
KTAS 201829Z 19009G17KT 35/17 A2995 RMK A01 T03500167  RH  034%=      5-min Rain = 0
KTAS 201830Z 16014KT 35/17 A2995 RMK A01 T03500170  RH  034%=      5-min Rain = 0
KTAS 201831Z 15012KT 35/17 A2995 RMK A01 T03510169  RH  034%=      5-min Rain = 0
KTAS 201832Z 15011KT 35/17 A2995 RMK A01 T03540170  RH  034%=      5-min Rain = 0
KTAS 201833Z 16011KT 36/17 A2995 RMK A01 T03550171  RH  034%=      5-min Rain = 0
KTAS 201834Z 16009KT 35/17 A2995 RMK A01 T03530168  RH  034%=      5-min Rain = 0
KTAS 201835Z 15010G17KT 35/17 A2995 RMK A01 T03510169  RH  034%=      5-min Rain = 0
KTAS 201836Z 16012KT 35/17 A2994 RMK A01 T03510167  RH  034%=      5-min Rain = 0
KTAS 201837Z 13007KT 35/17 A2994 RMK A01 T03500166  RH  034%=      5-min Rain = 0
KTAS 201838Z 15009KT 35/17 A2994 RMK A01 T03490169  RH  034%=      5-min Rain = 0
KTAS 201839Z 15009KT 35/17 A2994 RMK A01 T03530169  RH  034%=      5-min Rain = 0
KTAS 201840Z 16010KT 36/17 A2994 RMK A01 T03570170  RH  033%=      5-min Rain = 0
KTAS 201841Z 17013KT 36/17 A2994 RMK A01 T03600168  RH  032%=      5-min Rain = 0
KTAS 201842Z 18011KT 36/17 A2994 RMK A01 T03580167  RH  032%=      5-min Rain = 0
KTAS 201843Z 18010KT 36/17 A2994 RMK A01 T03570168  RH  033%=      5-min Rain = 0
KTAS 201844Z 17011KT 36/17 A2994 RMK A01 T03580170  RH  033%=      5-min Rain = 0
KTAS 201845Z 17013KT 36/17 A2994 RMK A01 T03590167  RH  032%=      5-min Rain = 0
KTAS 201846Z 17011G16KT 36/17 A2994 RMK A01 T03590167  RH  032%=      5-min Rain = 0
KTAS 201847Z 16011KT 36/17 A2994 RMK A01 T03580167  RH  032%=      5-min Rain = 0
KTAS 201848Z 16011KT 36/17 A2994 RMK A01 T03580170  RH  033%=      5-min Rain = 0
KTAS 201849Z 16011KT 36/17 A2994 RMK A01 T03620170  RH  032%=      5-min Rain = 0
KTAS 201850Z 16008KT 36/17 A2994 RMK A01 T03610170  RH  032%=      5-min Rain = 0
KTAS 201851Z 18012KT 36/17 A2994 RMK A01 T03630171  RH  032%=      5-min Rain = 0
KTAS 201852Z 19013KT 36/17 A2994 RMK A01 T03630168  RH  032%=      5-min Rain = 0
KTAS 201853Z 18011KT 36/17 A2994 RMK A01 T03620165  RH  031%=      5-min Rain = 0
KTAS 201854Z 19007KT 36/17 A2994 RMK A01 T03590165  RH  032%=      5-min Rain = 0
KTAS 201855Z 17012KT 36/17 A2994 RMK A01 T03630169  RH  032%=      5-min Rain = 0
KTAS 201856Z 17012KT 36/17 A2994 RMK A01 T03640169  RH  032%=      5-min Rain = 0
KTAS 201857Z 16008KT 36/17 A2994 RMK A01 T03620168  RH  032%=      5-min Rain = 0
KTAS 201858Z 16006KT 36/17 A2994 RMK A01 T03600168  RH  032%=      5-min Rain = 0
KTAS 201859Z 17008KT 36/17 A2994 RMK A01 T03610171  RH  033%=      5-min Rain = 0
KTAS 201900Z 15010KT 37/17 A2994 RMK A01 T03650170  RH  032%=      5-min Rain = 0
KTAS 201901Z 19013KT 36/17 A2993 RMK A01 T03630168  RH  032%=      5-min Rain = 0
KTAS 201902Z 18012KT 36/17 A2994 RMK A01 T03600167  RH  032%=      5-min Rain = 0
KTAS 201903Z 16008KT 36/17 A2994 RMK A01 T03600167  RH  032%=      5-min Rain = 0
KTAS 201904Z 15009KT 36/17 A2994 RMK A01 T03610167  RH  032%=      5-min Rain = 0
KTAS 201905Z 16011G18KT 36/17 A2993 RMK A01 T03610167  RH  032%=      5-min Rain = 0
KTAS 201906Z 19011KT 36/16 A2994 RMK A01 T03610164  RH  031%=      5-min Rain = 0
KTAS 201907Z 20013KT 36/16 A2994 RMK A01 T03630163  RH  031%=      5-min Rain = 0
KTAS 201908Z 20010KT 36/16 A2994 RMK A01 T03610159  RH  030%=      5-min Rain = 0
KTAS 201909Z 20008KT 36/16 A2993 RMK A01 T03630162  RH  030%=      5-min Rain = 0
KTAS 201910Z 19008KT 37/16 A2993 RMK A01 T03670163  RH  030%=      5-min Rain = 0
KTAS 201911Z 16010KT 37/17 A2993 RMK A01 T03680166  RH  030%=      5-min Rain = 0
KTAS 201912Z 15012KT 37/17 A2993 RMK A01 T03690168  RH  031%=      5-min Rain = 0
KTAS 201913Z 14012KT 37/17 A2993 RMK A01 T03710167  RH  030%=      5-min Rain = 0
KTAS 201914Z 15011KT 37/17 A2993 RMK A01 T03700166  RH  030%=      5-min Rain = 0
KTAS 201915Z 14010KT 37/17 A2993 RMK A01 T03700166  RH  030%=      5-min Rain = 0
KTAS 201916Z 15008KT 37/16 A2993 RMK A01 T03680163  RH  030%=      5-min Rain = 0
KTAS 201917Z 15015KT 37/17 A2993 RMK A01 T03650166  RH  031%=      5-min Rain = 0
KTAS 201918Z 16013KT 36/17 A2993 RMK A01 T03640167  RH  031%=      5-min Rain = 0
KTAS 201919Z 16014KT 36/17 A2993 RMK A01 T03630167  RH  032%=      5-min Rain = 0
KTAS 201920Z 17014KT 36/17 A2993 RMK A01 T03630166  RH  031%=      5-min Rain = 0
KTAS 201921Z 15013KT 36/17 A2993 RMK A01 T03620166  RH  031%=      5-min Rain = 0
KTAS 201922Z 15010KT 36/17 A2993 RMK A01 T03640166  RH  031%=      5-min Rain = 0
KTAS 201923Z 15012KT 37/17 A2993 RMK A01 T03670167  RH  031%=      5-min Rain = 0
KTAS 201924Z 16013KT 37/17 A2993 RMK A01 T03680165  RH  030%=      5-min Rain = 0
KTAS 201925Z 14009KT 37/16 A2993 RMK A01 T03670164  RH  030%=      5-min Rain = 0
KTAS 201926Z 15011KT 37/17 A2993 RMK A01 T03680165  RH  030%=      5-min Rain = 0
KTAS 201927Z 15010KT 37/17 A2993 RMK A01 T03680165  RH  030%=      5-min Rain = 0
KTAS 201928Z 15010KT 37/17 A2993 RMK A01 T03680168  RH  031%=      5-min Rain = 0
KTAS 201929Z 16009KT 37/17 A2993 RMK A01 T03700168  RH  031%=      5-min Rain = 0
KTAS 201930Z 19008KT 37/17 A2993 RMK A01 T03690166  RH  030%=      5-min Rain = 0
KTAS 201931Z 19010KT 37/16 A2993 RMK A01 T03720163  RH  029%=      5-min Rain = 0
KTAS 201932Z 19013KT 38/16 A2993 RMK A01 T03750160  RH  028%=      5-min Rain = 0
KTAS 201933Z 17013KT 37/16 A2993 RMK A01 T03730164  RH  029%=      5-min Rain = 0
KTAS 201934Z 17009KT 37/17 A2993 RMK A01 T03730169  RH  030%=      5-min Rain = 0
KTAS 201935Z 18013KT 38/17 A2993 RMK A01 T03780169  RH  029%=      5-min Rain = 0
KTAS 201936Z 18012KT 38/17 A2993 RMK A01 T03760166  RH  029%=      5-min Rain = 0
KTAS 201937Z 18013KT 37/17 A2993 RMK A01 T03730168  RH  030%=      5-min Rain = 0
KTAS 201938Z 17011KT 37/17 A2992 RMK A01 T03700170  RH  031%=      5-min Rain = 0
KTAS 201939Z 16012KT 37/17 A2992 RMK A01 T03720171  RH  031%=      5-min Rain = 0
KTAS 201940Z 16010KT 37/17 A2992 RMK A01 T03720170  RH  030%=      5-min Rain = 0
KTAS 201941Z 16014KT 37/17 A2992 RMK A01 T03730169  RH  030%=      5-min Rain = 0
KTAS 201942Z 16011KT 37/17 A2992 RMK A01 T03730168  RH  030%=      5-min Rain = 0
KTAS 201943Z 15010KT 37/17 A2992 RMK A01 T03720167  RH  030%=      5-min Rain = 0
KTAS 201944Z 15010G15KT 37/17 A2992 RMK A01 T03710167  RH  030%=      5-min Rain = 0
KTAS 201945Z 16014KT 37/17 A2992 RMK A01 T03710168  RH  030%=      5-min Rain = 0
KTAS 201946Z 17014KT 37/17 A2992 RMK A01 T03720170  RH  031%=      5-min Rain = 0
KTAS 201947Z 16014KT 37/17 A2992 RMK A01 T03710169  RH  030%=      5-min Rain = 0
KTAS 201948Z 15010KT 37/17 A2992 RMK A01 T03690168  RH  031%=      5-min Rain = 0
KTAS 201949Z 13008KT 37/17 A2992 RMK A01 T03680168  RH  031%=      5-min Rain = 0
KTAS 201950Z 15007KT 37/17 A2992 RMK A01 T03690168  RH  031%=      5-min Rain = 0
KTAS 201951Z 16012KT 37/17 A2992 RMK A01 T03690169  RH  031%=      5-min Rain = 0
KTAS 201952Z 16012KT 37/17 A2992 RMK A01 T03700167  RH  030%=      5-min Rain = 0
KTAS 201953Z 15012G17KT 37/17 A2992 RMK A01 T03710169  RH  031%=      5-min Rain = 0
KTAS 201954Z 14010KT 37/17 A2992 RMK A01 T03730167  RH  030%=      5-min Rain = 0
KTAS 201955Z 15007G12KT 37/17 A2992 RMK A01 T03710165  RH  030%=      5-min Rain = 0
KTAS 201956Z 16006G11KT 37/17 A2992 RMK A01 T03700165  RH  030%=      5-min Rain = 0
KTAS 201957Z 16010G15KT 37/17 A2992 RMK A01 T03730167  RH  030%=      5-min Rain = 0
KTAS 201958Z 15010KT 37/17 A2992 RMK A01 T03740169  RH  030%=      5-min Rain = 0
KTAS 201959Z 15010KT 38/17 A2992 RMK A01 T03760167  RH  029%=      5-min Rain = 0
KTAS 202000Z 15011KT 38/17 A2992 RMK A01 T03750168  RH  030%=      5-min Rain = 0
KTAS 202001Z 16013KT 38/17 A2992 RMK A01 T03760168  RH  029%=      5-min Rain = 0
KTAS 202002Z 18015KT 37/17 A2992 RMK A01 T03730167  RH  030%=      5-min Rain = 0
KTAS 202003Z 19011KT 37/16 A2992 RMK A01 T03720164  RH  029%=      5-min Rain = 0
KTAS 202004Z 17009KT 37/16 A2992 RMK A01 T03690164  RH  030%=      5-min Rain = 0
KTAS 202005Z 17013KT 37/17 A2992 RMK A01 T03720166  RH  030%=      5-min Rain = 0
KTAS 202006Z 18012KT 37/17 A2992 RMK A01 T03740165  RH  029%=      5-min Rain = 0
KTAS 202007Z 16011KT 38/16 A2992 RMK A01 T03750164  RH  029%=      5-min Rain = 0
KTAS 202008Z 17012KT 38/16 A2992 RMK A01 T03750163  RH  029%=      5-min Rain = 0
KTAS 202009Z 17009KT 37/16 A2992 RMK A01 T03740163  RH  029%=      5-min Rain = 0
KTAS 202010Z 18011KT 37/16 A2991 RMK A01 T03740163  RH  029%=      5-min Rain = 0
KTAS 202011Z 17007KT 37/16 A2991 RMK A01 T03720163  RH  029%=      5-min Rain = 0
KTAS 202012Z 14011G16KT 37/17 A2991 RMK A01 T03740166  RH  029%=      5-min Rain = 0
KTAS 202013Z 15012KT 38/17 A2991 RMK A01 T03760166  RH  029%=      5-min Rain = 0
KTAS 202014Z 15014KT 38/17 A2991 RMK A01 T03770166  RH  029%=      5-min Rain = 0
KTAS 202015Z 15013G18KT 38/17 A2991 RMK A01 T03770167  RH  029%=      5-min Rain = 0
KTAS 202016Z 19011KT 38/17 A2991 RMK A01 T03780166  RH  029%=      5-min Rain = 0
KTAS 202017Z 16010KT 38/17 A2991 RMK A01 T03790169  RH  029%=      5-min Rain = 0
KTAS 202018Z 16011KT 38/17 A2991 RMK A01 T03790165  RH  028%=      5-min Rain = 0
KTAS 202019Z 14007KT 38/17 A2991 RMK A01 T03770165  RH  029%=      5-min Rain = 0
KTAS 202020Z 13010KT 38/17 A2991 RMK A01 T03780165  RH  028%=      5-min Rain = 0
KTAS 202021Z 13009KT 38/17 A2991 RMK A01 T03790165  RH  028%=      5-min Rain = 0
KTAS 202022Z 15010KT 38/17 A2991 RMK A01 T03810166  RH  028%=      5-min Rain = 0
KTAS 202023Z 18009KT 38/16 A2991 RMK A01 T03840164  RH  028%=      5-min Rain = 0
KTAS 202024Z 17008KT 38/16 A2991 RMK A01 T03820163  RH  028%=      5-min Rain = 0
KTAS 202025Z 16014KT 38/17 A2991 RMK A01 T03810165  RH  028%=      5-min Rain = 0
KTAS 202026Z 17010KT 38/16 A2991 RMK A01 T03790164  RH  028%=      5-min Rain = 0
KTAS 202027Z 17010KT 38/17 A2991 RMK A01 T03780165  RH  028%=      5-min Rain = 0
KTAS 202028Z 16011KT 38/17 A2991 RMK A01 T03790166  RH  029%=      5-min Rain = 0
KTAS 202029Z 16009KT 38/16 A2991 RMK A01 T03810161  RH  027%=      5-min Rain = 0
KTAS 202030Z 16009KT 38/16 A2991 RMK A01 T03780160  RH  028%=      5-min Rain = 0
KTAS 202031Z 15009KT 38/16 A2991 RMK A01 T03790160  RH  028%=      5-min Rain = 0
KTAS 202032Z 14009KT 38/16 A2991 RMK A01 T03800162  RH  028%=      5-min Rain = 0
KTAS 202033Z 14012KT 38/16 A2991 RMK A01 T03820160  RH  027%=      5-min Rain = 0
KTAS 202034Z 15009KT 38/16 A2991 RMK A01 T03840161  RH  027%=      5-min Rain = 0
KTAS 202035Z 15010KT 38/16 A2991 RMK A01 T03820157  RH  027%=      5-min Rain = 0
KTAS 202036Z 16013KT 38/16 A2991 RMK A01 T03810160  RH  027%=      5-min Rain = 0
KTAS 202037Z 15014KT 38/16 A2991 RMK A01 T03810160  RH  027%=      5-min Rain = 0
KTAS 202038Z 15013KT 38/16 A2991 RMK A01 T03780159  RH  028%=      5-min Rain = 0
KTAS 202039Z 17012KT 38/16 A2991 RMK A01 T03790163  RH  028%=      5-min Rain = 0
KTAS 202040Z 17012KT 38/16 A2991 RMK A01 T03790159  RH  027%=      5-min Rain = 0
KTAS 202041Z 17011KT 38/16 A2991 RMK A01 T03770159  RH  028%=      5-min Rain = 0
KTAS 202042Z 17011KT 38/16 A2991 RMK A01 T03780158  RH  027%=      5-min Rain = 0
KTAS 202043Z 16010KT 38/16 A2991 RMK A01 T03770161  RH  028%=      5-min Rain = 0
KTAS 202044Z 16012KT 38/16 A2991 RMK A01 T03800164  RH  028%=      5-min Rain = 0
KTAS 202045Z 16012KT 38/16 A2991 RMK A01 T03810161  RH  027%=      5-min Rain = 0
KTAS 202046Z 14009KT 38/16 A2991 RMK A01 T03800161  RH  028%=      5-min Rain = 0
KTAS 202047Z 15008KT 38/16 A299 RMK A01 T03810161  RH  027%=      5-min Rain = 0
KTAS 202048Z 15010KT 39/16 A2991 RMK A01 T03850160  RH  027%=      5-min Rain = 0
KTAS 202049Z 16013KT 39/16 A2991 RMK A01 T03860161  RH  027%=      5-min Rain = 0
KTAS 202050Z 16013KT 39/16 A2991 RMK A01 T03850161  RH  027%=      5-min Rain = 0
KTAS 202051Z 15009KT 38/16 A2991 RMK A01 T03820156  RH  026%=      5-min Rain = 0
KTAS 202052Z 15011KT 38/16 A299 RMK A01 T03780156  RH  027%=      5-min Rain = 0
KTAS 202053Z 18012KT 38/16 A299 RMK A01 T03780159  RH  027%=      5-min Rain = 0
KTAS 202054Z 16013KT 38/16 A299 RMK A01 T03810157  RH  027%=      5-min Rain = 0
KTAS 202055Z 15014KT 38/16 A299 RMK A01 T03800159  RH  027%=      5-min Rain = 0
KTAS 202056Z 17012KT 38/16 A299 RMK A01 T03810161  RH  027%=      5-min Rain = 0
KTAS 202057Z 17012KT 38/16 A299 RMK A01 T03810159  RH  027%=      5-min Rain = 0
KTAS 202058Z 16011KT 38/16 A299 RMK A01 T03780158  RH  027%=      5-min Rain = 0
KTAS 202059Z 15009KT 38/16 A299 RMK A01 T03790158  RH  027%=      5-min Rain = 0
KTAS 202100Z 16008KT 38/16 A299 RMK A01 T03800158  RH  027%=      5-min Rain = 0
KTAS 202101Z 16009KT 38/16 A299 RMK A01 T03810159  RH  027%=      5-min Rain = 0
KTAS 202102Z 14011KT 38/16 A299 RMK A01 T03820158  RH  027%=      5-min Rain = 0
KTAS 202103Z 14010KT 38/16 A299 RMK A01 T03820155  RH  026%=      5-min Rain = 0
KTAS 202104Z 15009KT 38/15 A299 RMK A01 T03820152  RH  026%=      5-min Rain = 0
KTAS 202105Z 14009KT 38/15 A299 RMK A01 T03840150  RH  025%=      5-min Rain = 0
KTAS 202106Z 14011KT 38/15 A299 RMK A01 T03840151  RH  025%=      5-min Rain = 0
KTAS 202107Z 14010KT 39/16 A299 RMK A01 T03850155  RH  026%=      5-min Rain = 0
KTAS 202108Z 16012KT 38/16 A299 RMK A01 T03840155  RH  026%=      5-min Rain = 0
KTAS 202109Z 16012KT 38/16 A299 RMK A01 T03830156  RH  026%=      5-min Rain = 0
KTAS 202110Z 16011KT 38/15 A299 RMK A01 T03840154  RH  026%=      5-min Rain = 0
KTAS 202111Z 16011KT 38/15 A299 RMK A01 T03830153  RH  026%=      5-min Rain = 0
KTAS 202112Z 17011KT 38/15 A299 RMK A01 T03840154  RH  026%=      5-min Rain = 0
KTAS 202113Z 15008KT 38/15 A299 RMK A01 T03840151  RH  025%=      5-min Rain = 0
KTAS 202114Z 14007KT 39/15 A299 RMK A01 T03850147  RH  024%=      5-min Rain = 0
KTAS 202115Z 13011KT 39/15 A299 RMK A01 T03850150  RH  025%=      5-min Rain = 0
KTAS 202116Z 15007KT 38/15 A299 RMK A01 T03830151  RH  026%=      5-min Rain = 0
KTAS 202117Z 16010KT 39/16 A299 RMK A01 T03850155  RH  026%=      5-min Rain = 0
KTAS 202118Z 16012KT 39/16 A299 RMK A01 T03890156  RH  025%=      5-min Rain = 0
KTAS 202119Z 15010KT 39/15 A299 RMK A01 T03870153  RH  025%=      5-min Rain = 0
KTAS 202120Z 16007KT 39/15 A299 RMK A01 T03870154  RH  025%=      5-min Rain = 0
KTAS 202121Z 15007KT 39/15 A2989 RMK A01 T03890152  RH  025%=      5-min Rain = 0
KTAS 202122Z 16005KT 39/15 A2989 RMK A01 T03880150  RH  025%=      5-min Rain = 0
KTAS 202123Z 16009KT 39/15 A2989 RMK A01 T03880153  RH  025%=      5-min Rain = 0
KTAS 202124Z 18011KT 39/16 A2989 RMK A01 T03880155  RH  025%=      5-min Rain = 0
KTAS 202125Z 18013KT 39/15 A2989 RMK A01 T03890154  RH  025%=      5-min Rain = 0
KTAS 202126Z 17013KT 39/15 A2989 RMK A01 T03880151  RH  025%=      5-min Rain = 0
KTAS 202127Z 16011KT 39/15 A2989 RMK A01 T03870150  RH  025%=      5-min Rain = 0
KTAS 202128Z 16011KT 39/15 A2989 RMK A01 T03880147  RH  024%=      5-min Rain = 0
KTAS 202129Z 16008KT 39/15 A2989 RMK A01 T03890146  RH  024%=      5-min Rain = 0
KTAS 202130Z 18008KT 39/15 A2989 RMK A01 T03880145  RH  024%=      5-min Rain = 0
KTAS 202131Z 15008KT 39/15 A2989 RMK A01 T03880147  RH  024%=      5-min Rain = 0
KTAS 202132Z 15006KT 39/15 A2989 RMK A01 T03890146  RH  024%=      5-min Rain = 0
KTAS 202133Z 16007KT 39/14 A2989 RMK A01 T03890144  RH  024%=      5-min Rain = 0
KTAS 202134Z 17006KT 39/15 A2989 RMK A01 T03900147  RH  024%=      5-min Rain = 0
KTAS 202135Z 17007KT 39/15 A2989 RMK A01 T03910145  RH  024%=      5-min Rain = 0
KTAS 202136Z 16005KT 39/15 A2989 RMK A01 T03900147  RH  024%=      5-min Rain = 0
KTAS 202137Z 14009G14KT 39/15 A2989 RMK A01 T03920146  RH  024%=      5-min Rain = 0
KTAS 202138Z 15009KT 39/15 A2989 RMK A01 T03910149  RH  024%=      5-min Rain = 0
KTAS 202139Z 15008KT 39/15 A2989 RMK A01 T03890150  RH  025%=      5-min Rain = 0
KTAS 202140Z 15007KT 39/15 A2989 RMK A01 T03920151  RH  024%=      5-min Rain = 0
KTAS 202141Z 16008KT 40/15 A2989 RMK A01 T03950148  RH  023%=      5-min Rain = 0
KTAS 202142Z 15006KT 39/15 A2989 RMK A01 T03920145  RH  023%=      5-min Rain = 0
KTAS 202143Z 16010KT 39/15 A2989 RMK A01 T03920146  RH  024%=      5-min Rain = 0
KTAS 202144Z 16006KT 39/14 A2989 RMK A01 T03890142  RH  023%=      5-min Rain = 0
KTAS 202145Z 14008KT 39/14 A2989 RMK A01 T03870143  RH  024%=      5-min Rain = 0
KTAS 202146Z 14007KT 39/14 A2988 RMK A01 T03870143  RH  024%=      5-min Rain = 0
KTAS 202147Z 16007KT 39/14 A2989 RMK A01 T03870141  RH  023%=      5-min Rain = 0
KTAS 202148Z 16011KT 39/14 A2989 RMK A01 T03870142  RH  023%=      5-min Rain = 0
KTAS 202149Z 16008KT 39/14 A2989 RMK A01 T03880142  RH  023%=      5-min Rain = 0
KTAS 202150Z 16008KT 39/14 A2989 RMK A01 T03900141  RH  023%=      5-min Rain = 0
KTAS 202151Z 16007KT 39/14 A2988 RMK A01 T03880141  RH  023%=      5-min Rain = 0
KTAS 202152Z 15010KT 39/14 A2989 RMK A01 T03900144  RH  023%=      5-min Rain = 0
KTAS 202153Z 16010KT 39/14 A2989 RMK A01 T03910141  RH  023%=      5-min Rain = 0
KTAS 202154Z 17011KT 39/14 A2989 RMK A01 T03900139  RH  023%=      5-min Rain = 0
KTAS 202155Z 18011KT 39/14 A2988 RMK A01 T03870143  RH  024%=      5-min Rain = 0
KTAS 202156Z 17010KT 39/14 A2988 RMK A01 T03860141  RH  023%=      5-min Rain = 0
KTAS 202157Z 16010KT 39/14 A2988 RMK A01 T03850142  RH  024%=      5-min Rain = 0
KTAS 202158Z 15006KT 39/14 A2988 RMK A01 T03850141  RH  024%=      5-min Rain = 0
KTAS 202159Z 15007KT 39/14 A2988 RMK A01 T03860144  RH  024%=      5-min Rain = 0
KTAS 202200Z 16008KT 39/14 A2988 RMK A01 T03890142  RH  023%=      5-min Rain = 0
KTAS 202201Z 16011G16KT 39/14 A2988 RMK A01 T03890142  RH  023%=      5-min Rain = 0
KTAS 202202Z 15012KT 39/14 A2988 RMK A01 T03880142  RH  023%=      5-min Rain = 0
KTAS 202203Z 16010KT 39/14 A2988 RMK A01 T03860141  RH  024%=      5-min Rain = 0
KTAS 202204Z 17007KT 38/14 A2988 RMK A01 T03840143  RH  024%=      5-min Rain = 0
KTAS 202205Z 15009KT 39/14 A2988 RMK A01 T03850142  RH  024%=      5-min Rain = 0
KTAS 202206Z 15008KT 39/14 A2988 RMK A01 T03860141  RH  023%=      5-min Rain = 0
KTAS 202207Z 17008KT 39/14 A2988 RMK A01 T03870142  RH  023%=      5-min Rain = 0
KTAS 202208Z 19009KT 39/14 A2988 RMK A01 T03880140  RH  023%=      5-min Rain = 0
KTAS 202209Z 18011KT 39/14 A2988 RMK A01 T03860138  RH  023%=      5-min Rain = 0
KTAS 202210Z 16012KT 39/15 A2988 RMK A01 T03870146  RH  024%=      5-min Rain = 0
KTAS 202211Z 16011KT 39/15 A2988 RMK A01 T03900146  RH  024%=      5-min Rain = 0
KTAS 202212Z 17009KT 39/14 A2988 RMK A01 T03910144  RH  023%=      5-min Rain = 0
KTAS 202213Z 18009KT 39/14 A2988 RMK A01 T03890144  RH  024%=      5-min Rain = 0
KTAS 202214Z 16009KT 39/14 A2988 RMK A01 T03900142  RH  023%=      5-min Rain = 0
KTAS 202215Z 15009KT 39/14 A2988 RMK A01 T03890141  RH  023%=      5-min Rain = 0
KTAS 202216Z 15011KT 39/14 A2988 RMK A01 T03890138  RH  023%=      5-min Rain = 0
KTAS 202217Z 17012G17KT 39/14 A2988 RMK A01 T03880140  RH  023%=      5-min Rain = 0
KTAS 202218Z 18012KT 39/14 A2988 RMK A01 T03880140  RH  023%=      5-min Rain = 0
KTAS 202219Z 17009KT 39/14 A2988 RMK A01 T03870140  RH  023%=      5-min Rain = 0
KTAS 202220Z 17009KT 39/14 A2988 RMK A01 T03880138  RH  023%=      5-min Rain = 0
KTAS 202221Z 18012KT 39/14 A2987 RMK A01 T03880141  RH  023%=      5-min Rain = 0
KTAS 202222Z 16012KT 39/14 A2988 RMK A01 T03890139  RH  023%=      5-min Rain = 0
KTAS 202223Z 17011KT 39/14 A2988 RMK A01 T03880140  RH  023%=      5-min Rain = 0
KTAS 202224Z 17009KT 39/14 A2988 RMK A01 T03880141  RH  023%=      5-min Rain = 0
KTAS 202225Z 16008KT 39/14 A2987 RMK A01 T03900142  RH  023%=      5-min Rain = 0
KTAS 202226Z 16008KT 39/14 A2987 RMK A01 T03900139  RH  023%=      5-min Rain = 0
KTAS 202227Z 16006KT 39/14 A2987 RMK A01 T03910136  RH  022%=      5-min Rain = 0
KTAS 202228Z 16007KT 39/14 A2987 RMK A01 T03920136  RH  022%=      5-min Rain = 0
KTAS 202229Z 16008KT 39/14 A2987 RMK A01 T03910136  RH  022%=      5-min Rain = 0
KTAS 202230Z 16007KT 39/14 A2987 RMK A01 T03900139  RH  023%=      5-min Rain = 0
KTAS 202231Z 16011KT 39/14 A2987 RMK A01 T03920138  RH  022%=      5-min Rain = 0
KTAS 202232Z 16010KT 39/14 A2987 RMK A01 T03920136  RH  022%=      5-min Rain = 0
KTAS 202233Z 15007KT 39/14 A2987 RMK A01 T03910137  RH  022%=      5-min Rain = 0
KTAS 202234Z 13010KT 39/14 A2987 RMK A01 T03900135  RH  022%=      5-min Rain = 0
KTAS 202235Z 12010KT 39/13 A2987 RMK A01 T03880131  RH  022%=      5-min Rain = 0
KTAS 202236Z 14008KT 39/13 A2987 RMK A01 T03850129  RH  022%=      5-min Rain = 0
KTAS 202237Z 16008KT 39/13 A2987 RMK A01 T03870131  RH  022%=      5-min Rain = 0
KTAS 202238Z 16011KT 39/13 A2987 RMK A01 T03890132  RH  022%=      5-min Rain = 0
KTAS 202239Z 15009KT 39/13 A2987 RMK A01 T03870130  RH  022%=      5-min Rain = 0
KTAS 202240Z 15010KT 39/13 A2987 RMK A01 T03880131  RH  022%=      5-min Rain = 0
KTAS 202241Z 16010KT 39/13 A2987 RMK A01 T03890131  RH  022%=      5-min Rain = 0
KTAS 202242Z 16009KT 39/13 A2987 RMK A01 T03880132  RH  022%=      5-min Rain = 0
KTAS 202243Z 17011KT 39/14 A2987 RMK A01 T03880135  RH  022%=      5-min Rain = 0
KTAS 202244Z 16010KT 39/13 A2987 RMK A01 T03870131  RH  022%=      5-min Rain = 0
KTAS 202245Z 16007KT 39/13 A2987 RMK A01 T03870130  RH  022%=      5-min Rain = 0
KTAS 202246Z 17007KT 39/13 A2987 RMK A01 T03890134  RH  022%=      5-min Rain = 0
KTAS 202247Z 17011KT 39/13 A2987 RMK A01 T03920133  RH  022%=      5-min Rain = 0
KTAS 202248Z 17010KT 39/13 A2987 RMK A01 T03920130  RH  021%=      5-min Rain = 0
KTAS 202249Z 16011KT 39/13 A2987 RMK A01 T03900125  RH  021%=      5-min Rain = 0
KTAS 202250Z 16009KT 39/12 A2987 RMK A01 T03880122  RH  021%=      5-min Rain = 0
KTAS 202251Z 16008KT 39/13 A2987 RMK A01 T03870127  RH  021%=      5-min Rain = 0
KTAS 202252Z 16008KT 39/13 A2987 RMK A01 T03880127  RH  021%=      5-min Rain = 0
KTAS 202253Z 16008KT 39/13 A2987 RMK A01 T03900130  RH  021%=      5-min Rain = 0
KTAS 202254Z 16011KT 39/13 A2987 RMK A01 T03900132  RH  022%=      5-min Rain = 0
KTAS 202255Z 15008KT 39/13 A2987 RMK A01 T03890130  RH  021%=      5-min Rain = 0
KTAS 202256Z 14009KT 39/13 A2987 RMK A01 T03890129  RH  021%=      5-min Rain = 0
KTAS 202257Z 13009KT 39/13 A2987 RMK A01 T03900130  RH  021%=      5-min Rain = 0
KTAS 202258Z 13007KT 39/13 A2986 RMK A01 T03890127  RH  021%=      5-min Rain = 0
KTAS 202259Z 14007KT 39/13 A2986 RMK A01 T03890129  RH  021%=      5-min Rain = 0
KTAS 202300Z 14010KT 39/13 A2986 RMK A01 T03900129  RH  021%=      5-min Rain = 0
KTAS 202301Z 15008KT 39/13 A2986 RMK A01 T03900130  RH  021%=      5-min Rain = 0
KTAS 202302Z 16008KT 39/13 A2986 RMK A01 T03930128  RH  021%=      5-min Rain = 0
KTAS 202303Z 17011KT 39/13 A2986 RMK A01 T03930129  RH  021%=      5-min Rain = 0
KTAS 202304Z 17009KT 39/14 A2986 RMK A01 T03920135  RH  022%=      5-min Rain = 0
KTAS 202305Z 18009KT 39/14 A2986 RMK A01 T03910135  RH  022%=      5-min Rain = 0
KTAS 202306Z 18010KT 39/14 A2986 RMK A01 T03900135  RH  022%=      5-min Rain = 0
KTAS 202307Z 17009KT 39/13 A2986 RMK A01 T03900134  RH  022%=      5-min Rain = 0
KTAS 202308Z 18011KT 39/13 A2986 RMK A01 T03890132  RH  022%=      5-min Rain = 0
KTAS 202309Z 18008KT 39/13 A2986 RMK A01 T03890130  RH  022%=      5-min Rain = 0
KTAS 202310Z 17008KT 39/13 A2986 RMK A01 T03880128  RH  021%=      5-min Rain = 0
KTAS 202311Z 18010KT 39/13 A2986 RMK A01 T03870130  RH  022%=      5-min Rain = 0
KTAS 202312Z 17008KT 39/13 A2986 RMK A01 T03870126  RH  021%=      5-min Rain = 0
KTAS 202313Z 17007KT 39/13 A2986 RMK A01 T03870126  RH  021%=      5-min Rain = 0
KTAS 202314Z 16008KT 39/13 A2986 RMK A01 T03880126  RH  021%=      5-min Rain = 0
KTAS 202315Z 15009KT 39/13 A2986 RMK A01 T03880128  RH  021%=      5-min Rain = 0
KTAS 202316Z 16009KT 39/13 A2986 RMK A01 T03870127  RH  021%=      5-min Rain = 0
KTAS 202317Z 16008KT 39/13 A2986 RMK A01 T03870127  RH  021%=      5-min Rain = 0
KTAS 202318Z 16011KT 39/13 A2986 RMK A01 T03870127  RH  021%=      5-min Rain = 0
KTAS 202319Z 16010KT 39/13 A2986 RMK A01 T03870125  RH  021%=      5-min Rain = 0
KTAS 202320Z 15008KT 39/12 A2986 RMK A01 T03870123  RH  021%=      5-min Rain = 0
KTAS 202321Z 15009KT 39/13 A2986 RMK A01 T03890125  RH  021%=      5-min Rain = 0
KTAS 202322Z 16008KT 39/12 A2986 RMK A01 T03880121  RH  020%=      5-min Rain = 0
KTAS 202323Z 15009KT 39/12 A2986 RMK A01 T03870123  RH  021%=      5-min Rain = 0
KTAS 202324Z 16009KT 39/13 A2986 RMK A01 T03870125  RH  021%=      5-min Rain = 0
KTAS 202325Z 16010KT 39/13 A2986 RMK A01 T03880129  RH  022%=      5-min Rain = 0
KTAS 202326Z 16010KT 39/13 A2986 RMK A01 T03880129  RH  021%=      5-min Rain = 0
KTAS 202327Z 16009KT 39/13 A2986 RMK A01 T03870126  RH  021%=      5-min Rain = 0
KTAS 202328Z 16009KT 39/13 A2986 RMK A01 T03870127  RH  021%=      5-min Rain = 0
KTAS 202329Z 16010KT 39/13 A2986 RMK A01 T03860130  RH  022%=      5-min Rain = 0
KTAS 202330Z 16009KT 39/13 A2986 RMK A01 T03860131  RH  022%=      5-min Rain = 0
KTAS 202331Z 16009KT 39/13 A2986 RMK A01 T03870130  RH  022%=      5-min Rain = 0
KTAS 202332Z 15007KT 39/13 A2986 RMK A01 T03870127  RH  021%=      5-min Rain = 0
KTAS 202333Z 15009KT 39/13 A2986 RMK A01 T03860127  RH  021%=      5-min Rain = 0
KTAS 202334Z 16010KT 39/13 A2986 RMK A01 T03850129  RH  022%=      5-min Rain = 0
KTAS 202335Z 16013KT 38/13 A2986 RMK A01 T03840131  RH  022%=      5-min Rain = 0
KTAS 202336Z 16011KT 38/13 A2986 RMK A01 T03830129  RH  022%=      5-min Rain = 0
KTAS 202337Z 17008KT 38/13 A2986 RMK A01 T03820127  RH  022%=      5-min Rain = 0
KTAS 202338Z 17010KT 38/13 A2986 RMK A01 T03820130  RH  022%=      5-min Rain = 0
KTAS 202339Z 17010KT 38/13 A2985 RMK A01 T03830132  RH  023%=      5-min Rain = 0
KTAS 202340Z 17010KT 38/13 A2985 RMK A01 T03820132  RH  023%=      5-min Rain = 0
KTAS 202341Z 16009KT 38/13 A2985 RMK A01 T03820127  RH  022%=      5-min Rain = 0
KTAS 202342Z 16010KT 38/13 A2986 RMK A01 T03820128  RH  022%=      5-min Rain = 0
KTAS 202343Z 16009KT 38/13 A2986 RMK A01 T03830125  RH  021%=      5-min Rain = 0
KTAS 202344Z 16008KT 38/13 A2985 RMK A01 T03840125  RH  021%=      5-min Rain = 0
KTAS 202345Z 16009KT 38/13 A2985 RMK A01 T03840129  RH  022%=      5-min Rain = 0
KTAS 202346Z 16011KT 38/13 A2985 RMK A01 T03840127  RH  022%=      5-min Rain = 0
KTAS 202347Z 17010KT 38/13 A2985 RMK A01 T03830126  RH  022%=      5-min Rain = 0
KTAS 202348Z 18010KT 38/13 A2985 RMK A01 T03830125  RH  022%=      5-min Rain = 0
KTAS 202349Z 17008KT 38/12 A2985 RMK A01 T03820121  RH  021%=      5-min Rain = 0
KTAS 202350Z 17009KT 38/13 A2985 RMK A01 T03820125  RH  022%=      5-min Rain = 0
KTAS 202351Z 17009KT 38/13 A2985 RMK A01 T03820130  RH  022%=      5-min Rain = 0
KTAS 202352Z 16008KT 38/13 A2985 RMK A01 T03830131  RH  022%=      5-min Rain = 0
KTAS 202353Z 17009KT 38/13 A2985 RMK A01 T03820131  RH  022%=      5-min Rain = 0
KTAS 202354Z 17009KT 38/13 A2985 RMK A01 T03820133  RH  023%=      5-min Rain = 0
KTAS 202355Z 17008KT 38/13 A2985 RMK A01 T03820132  RH  023%=      5-min Rain = 0
KTAS 202356Z 18010KT 38/13 A2985 RMK A01 T03820133  RH  023%=      5-min Rain = 0
KTAS 202357Z 17011KT 38/13 A2985 RMK A01 T03810132  RH  023%=      5-min Rain = 0
KTAS 202358Z 17010KT 38/13 A2985 RMK A01 T03810129  RH  022%=      5-min Rain = 0
KTAS 202359Z 17011KT 38/13 A2985 RMK A01 T03800126  RH  022%=      5-min Rain = 0
KTAS 210000Z 18010KT 38/13 A2985 RMK A01 T03800127  RH  022%=      5-min Rain = 0
KTAS 210001Z 17010KT 38/13 A2985 RMK A01 T03790126  RH  022%=      5-min Rain = 0
KTAS 210002Z 17008KT 38/13 A2985 RMK A01 T03790129  RH  023%=      5-min Rain = 0
KTAS 210003Z 18007KT 38/13 A2985 RMK A01 T03790128  RH  022%=      5-min Rain = 0
KTAS 210004Z 17010KT 38/13 A2985 RMK A01 T03800129  RH  022%=      5-min Rain = 0
KTAS 210005Z 18010KT 38/13 A2985 RMK A01 T03800127  RH  022%=      5-min Rain = 0
KTAS 210006Z 18011KT 38/13 A2985 RMK A01 T03790126  RH  022%=      5-min Rain = 0
KTAS 210007Z 18009KT 38/12 A2985 RMK A01 T03790122  RH  022%=      5-min Rain = 0
KTAS 210008Z 17009KT 38/12 A2985 RMK A01 T03790123  RH  022%=      5-min Rain = 0
KTAS 210009Z 18008KT 38/12 A2985 RMK A01 T03790123  RH  022%=      5-min Rain = 0
KTAS 210010Z 17009KT 38/13 A2985 RMK A01 T03790127  RH  022%=      5-min Rain = 0
KTAS 210011Z 17008KT 38/13 A2985 RMK A01 T03790126  RH  022%=      5-min Rain = 0
KTAS 210012Z 16007KT 38/13 A2985 RMK A01 T03790125  RH  022%=      5-min Rain = 0
KTAS 210013Z 17007KT 38/13 A2985 RMK A01 T03790127  RH  022%=      5-min Rain = 0
KTAS 210014Z 17008KT 38/13 A2985 RMK A01 T03780130  RH  023%=      5-min Rain = 0
KTAS 210015Z 16008KT 38/13 A2985 RMK A01 T03770131  RH  023%=      5-min Rain = 0
KTAS 210016Z 16009KT 38/13 A2985 RMK A01 T03770133  RH  023%=      5-min Rain = 0
KTAS 210017Z 16009KT 38/13 A2985 RMK A01 T03760131  RH  023%=      5-min Rain = 0
KTAS 210018Z 17012KT 38/13 A2985 RMK A01 T03750128  RH  023%=      5-min Rain = 0
KTAS 210019Z 16009KT 37/13 A2985 RMK A01 T03740125  RH  023%=      5-min Rain = 0
KTAS 210020Z 17010KT 38/13 A2985 RMK A01 T03750126  RH  023%=      5-min Rain = 0
KTAS 210021Z 16012KT 38/13 A2985 RMK A01 T03750127  RH  023%=      5-min Rain = 0
KTAS 210022Z 16012KT 37/13 A2985 RMK A01 T03730126  RH  023%=      5-min Rain = 0
KTAS 210023Z 16009KT 37/13 A2985 RMK A01 T03730128  RH  023%=      5-min Rain = 0
KTAS 210024Z 17007KT 37/13 A2985 RMK A01 T03730132  RH  024%=      5-min Rain = 0
KTAS 210025Z 17009KT 37/13 A2985 RMK A01 T03730133  RH  024%=      5-min Rain = 0
KTAS 210026Z 17009KT 37/13 A2985 RMK A01 T03730132  RH  024%=      5-min Rain = 0
KTAS 210027Z 17009KT 37/13 A2985 RMK A01 T03730132  RH  024%=      5-min Rain = 0
KTAS 210028Z 16009KT 37/13 A2985 RMK A01 T03720132  RH  024%=      5-min Rain = 0
KTAS 210029Z 16011KT 37/13 A2985 RMK A01 T03720131  RH  024%=      5-min Rain = 0
KTAS 210030Z 16009KT 37/13 A2985 RMK A01 T03720131  RH  024%=      5-min Rain = 0
KTAS 210031Z 17007KT 37/14 A2985 RMK A01 T03720135  RH  024%=      5-min Rain = 0
KTAS 210032Z 17008KT 37/14 A2985 RMK A01 T03710137  RH  025%=      5-min Rain = 0
KTAS 210033Z 17008KT 37/14 A2985 RMK A01 T03710137  RH  025%=      5-min Rain = 0
KTAS 210034Z 17008KT 37/14 A2985 RMK A01 T03700137  RH  025%=      5-min Rain = 0
KTAS 210035Z 17010KT 37/14 A2985 RMK A01 T03700136  RH  025%=      5-min Rain = 0
KTAS 210036Z 17011KT 37/14 A2985 RMK A01 T03690135  RH  025%=      5-min Rain = 0
KTAS 210037Z 17010KT 37/14 A2985 RMK A01 T03680135  RH  025%=      5-min Rain = 0
KTAS 210038Z 17009KT 37/14 A2985 RMK A01 T03680136  RH  025%=      5-min Rain = 0
KTAS 210039Z 17009KT 37/14 A2985 RMK A01 T03670135  RH  025%=      5-min Rain = 0
KTAS 210040Z 17011KT 37/14 A2985 RMK A01 T03670135  RH  025%=      5-min Rain = 0
KTAS 210041Z 17011KT 37/13 A2985 RMK A01 T03670134  RH  025%=      5-min Rain = 0
KTAS 210042Z 17009KT 37/14 A2985 RMK A01 T03670135  RH  025%=      5-min Rain = 0
KTAS 210043Z 17010KT 37/13 A2985 RMK A01 T03660134  RH  025%=      5-min Rain = 0
KTAS 210044Z 16010KT 37/13 A2985 RMK A01 T03660133  RH  025%=      5-min Rain = 0
KTAS 210045Z 18009KT 37/13 A2985 RMK A01 T03660133  RH  025%=      5-min Rain = 0
KTAS 210046Z 17009KT 37/13 A2985 RMK A01 T03660133  RH  025%=      5-min Rain = 0
KTAS 210047Z 17009KT 37/13 A2985 RMK A01 T03660132  RH  025%=      5-min Rain = 0
KTAS 210048Z 17008KT 37/13 A2985 RMK A01 T03650131  RH  025%=      5-min Rain = 0
KTAS 210049Z 17010KT 37/13 A2985 RMK A01 T03650130  RH  024%=      5-min Rain = 0
KTAS 210050Z 17009KT 37/13 A2985 RMK A01 T03650127  RH  024%=      5-min Rain = 0
KTAS 210051Z 17007KT 37/13 A2985 RMK A01 T03650128  RH  024%=      5-min Rain = 0
KTAS 210052Z 17008KT 37/13 A2985 RMK A01 T03660129  RH  024%=      5-min Rain = 0
KTAS 210053Z 17008KT 37/13 A2985 RMK A01 T03650131  RH  025%=      5-min Rain = 0
KTAS 210054Z 17009KT 36/13 A2985 RMK A01 T03640133  RH  025%=      5-min Rain = 0
KTAS 210055Z 17008KT 36/13 A2985 RMK A01 T03630132  RH  025%=      5-min Rain = 0
KTAS 210056Z 18009KT 36/13 A2985 RMK A01 T03630131  RH  025%=      5-min Rain = 0
KTAS 210057Z 17009KT 36/13 A2985 RMK A01 T03630128  RH  024%=      5-min Rain = 0
KTAS 210058Z 17009KT 36/13 A2985 RMK A01 T03630132  RH  025%=      5-min Rain = 0
KTAS 210059Z 17009KT 36/14 A2985 RMK A01 T03610135  RH  026%=      5-min Rain = 0
KTAS 210100Z 17008KT 36/14 A2985 RMK A01 T03600137  RH  026%=      5-min Rain = 0
KTAS 210101Z 17009KT 36/14 A2985 RMK A01 T03590138  RH  027%=      5-min Rain = 0
KTAS 210102Z 17008KT 36/14 A2985 RMK A01 T03580139  RH  027%=      5-min Rain = 0
KTAS 210103Z 16009KT 36/14 A2985 RMK A01 T03570138  RH  027%=      5-min Rain = 0
KTAS 210104Z 16009KT 36/13 A2985 RMK A01 T03570134  RH  026%=      5-min Rain = 0
KTAS 210105Z 17008KT 36/13 A2985 RMK A01 T03570134  RH  026%=      5-min Rain = 0
KTAS 210106Z 17009KT 36/13 A2985 RMK A01 T03570133  RH  026%=      5-min Rain = 0
KTAS 210107Z 17008KT 36/13 A2985 RMK A01 T03560132  RH  026%=      5-min Rain = 0
KTAS 210108Z 17007KT 36/14 A2985 RMK A01 T03560135  RH  027%=      5-min Rain = 0
KTAS 210109Z 17008KT 36/14 A2985 RMK A01 T03550135  RH  027%=      5-min Rain = 0
KTAS 210110Z 17008KT 36/14 A2985 RMK A01 T03550136  RH  027%=      5-min Rain = 0
KTAS 210111Z 17008KT 35/14 A2985 RMK A01 T03540137  RH  027%=      5-min Rain = 0
KTAS 210112Z 17008KT 35/14 A2986 RMK A01 T03530137  RH  027%=      5-min Rain = 0
KTAS 210113Z 17008KT 35/14 A2986 RMK A01 T03520137  RH  028%=      5-min Rain = 0
KTAS 210114Z 17008KT 35/14 A2986 RMK A01 T03510138  RH  028%=      5-min Rain = 0
KTAS 210115Z 17008KT 35/14 A2986 RMK A01 T03510137  RH  028%=      5-min Rain = 0
KTAS 210116Z 17008KT 35/14 A2986 RMK A01 T03500139  RH  028%=      5-min Rain = 0
KTAS 210117Z 17007KT 35/14 A2986 RMK A01 T03490140  RH  028%=      5-min Rain = 0
KTAS 210118Z 17009KT 35/14 A2986 RMK A01 T03480140  RH  029%=      5-min Rain = 0
KTAS 210119Z 17008KT 35/14 A2986 RMK A01 T03470135  RH  028%=      5-min Rain = 0
KTAS 210120Z 17008KT 35/14 A2986 RMK A01 T03480138  RH  028%=      5-min Rain = 0
KTAS 210121Z 17009KT 35/14 A2986 RMK A01 T03470138  RH  028%=      5-min Rain = 0
KTAS 210122Z 17008KT 35/14 A2986 RMK A01 T03470137  RH  028%=      5-min Rain = 0
KTAS 210123Z 17007KT 35/14 A2986 RMK A01 T03460137  RH  028%=      5-min Rain = 0
KTAS 210124Z 17008KT 35/14 A2986 RMK A01 T03450137  RH  029%=      5-min Rain = 0
KTAS 210125Z 17008KT 34/14 A2986 RMK A01 T03440138  RH  029%=      5-min Rain = 0
KTAS 210126Z 17008KT 34/14 A2986 RMK A01 T03440137  RH  029%=      5-min Rain = 0
KTAS 210127Z 17009KT 34/14 A2986 RMK A01 T03430136  RH  029%=      5-min Rain = 0
KTAS 210128Z 17009KT 34/14 A2986 RMK A01 T03430135  RH  029%=      5-min Rain = 0
KTAS 210129Z 17009KT 34/14 A2986 RMK A01 T03430136  RH  029%=      5-min Rain = 0
KTAS 210130Z 17009KT 34/14 A2986 RMK A01 T03420136  RH  029%=      5-min Rain = 0
KTAS 210131Z 17008KT 34/14 A2986 RMK A01 T03410135  RH  029%=      5-min Rain = 0
KTAS 210132Z 17008KT 34/14 A2986 RMK A01 T03400135  RH  029%=      5-min Rain = 0
KTAS 210133Z 17008KT 34/14 A2986 RMK A01 T03390135  RH  029%=      5-min Rain = 0
KTAS 210134Z 17008KT 34/14 A2986 RMK A01 T03390136  RH  029%=      5-min Rain = 0
KTAS 210135Z 17008KT 34/14 A2986 RMK A01 T03380137  RH  030%=      5-min Rain = 0
KTAS 210136Z 17009KT 34/14 A2986 RMK A01 T03370137  RH  030%=      5-min Rain = 0
KTAS 210137Z 17008KT 34/14 A2986 RMK A01 T03360136  RH  030%=      5-min Rain = 0
KTAS 210138Z 17008KT 34/14 A2986 RMK A01 T03360136  RH  030%=      5-min Rain = 0
KTAS 210139Z 17009KT 34/14 A2986 RMK A01 T03350136  RH  030%=      5-min Rain = 0
KTAS 210140Z 17008KT 33/14 A2986 RMK A01 T03340136  RH  030%=      5-min Rain = 0
KTAS 210141Z 17008KT 33/13 A2986 RMK A01 T03340134  RH  030%=      5-min Rain = 0
KTAS 210142Z 17008KT 33/13 A2986 RMK A01 T03340134  RH  030%=      5-min Rain = 0
KTAS 210143Z 17009KT 33/14 A2986 RMK A01 T03340135  RH  030%=      5-min Rain = 0
KTAS 210144Z 17008KT 33/14 A2986 RMK A01 T03330136  RH  030%=      5-min Rain = 0
KTAS 210145Z 17008KT 33/14 A2986 RMK A01 T03320136  RH  031%=      5-min Rain = 0
KTAS 210146Z 17008KT 33/14 A2986 RMK A01 T03310137  RH  031%=      5-min Rain = 0
KTAS 210147Z 18008KT 33/14 A2986 RMK A01 T03300136  RH  031%=      5-min Rain = 0
KTAS 210148Z 17008KT 33/14 A2986 RMK A01 T03300137  RH  031%=      5-min Rain = 0
KTAS 210149Z 17008KT 33/14 A2986 RMK A01 T03290136  RH  031%=      5-min Rain = 0
KTAS 210150Z 17008KT 33/14 A2986 RMK A01 T03290136  RH  031%=      5-min Rain = 0
KTAS 210151Z 17008KT 33/14 A2986 RMK A01 T03270138  RH  032%=      5-min Rain = 0
KTAS 210152Z 17008KT 33/14 A2986 RMK A01 T03260139  RH  032%=      5-min Rain = 0
KTAS 210153Z 17008KT 33/14 A2986 RMK A01 T03250139  RH  032%=      5-min Rain = 0
KTAS 210154Z 17008KT 32/14 A2986 RMK A01 T03240139  RH  033%=      5-min Rain = 0
KTAS 210155Z 17008KT 32/14 A2986 RMK A01 T03230139  RH  033%=      5-min Rain = 0
KTAS 210156Z 17008KT 32/14 A2986 RMK A01 T03220139  RH  033%=      5-min Rain = 0
KTAS 210157Z 17009KT 32/14 A2986 RMK A01 T03220139  RH  033%=      5-min Rain = 0
KTAS 210158Z 17009KT 32/14 A2986 RMK A01 T03220138  RH  033%=      5-min Rain = 0
KTAS 210159Z 17009KT 32/14 A2986 RMK A01 T03220139  RH  033%=      5-min Rain = 0
KTAS 210200Z 17009KT 32/14 A2986 RMK A01 T03210139  RH  033%=      5-min Rain = 0
KTAS 210201Z 17009KT 32/14 A2986 RMK A01 T03220138  RH  033%=      5-min Rain = 0
KTAS 210202Z 17010KT 32/14 A2986 RMK A01 T03220138  RH  033%=      5-min Rain = 0
KTAS 210203Z 17009KT 32/14 A2986 RMK A01 T03220138  RH  033%=      5-min Rain = 0
KTAS 210204Z 17010KT 32/14 A2986 RMK A01 T03210139  RH  033%=      5-min Rain = 0
KTAS 210205Z 16009KT 32/14 A2986 RMK A01 T03210137  RH  033%=      5-min Rain = 0
KTAS 210206Z 17008KT 32/14 A2986 RMK A01 T03220138  RH  033%=      5-min Rain = 0
KTAS 210207Z 17008KT 32/14 A2986 RMK A01 T03210138  RH  033%=      5-min Rain = 0
KTAS 210208Z 17009KT 32/14 A2986 RMK A01 T03210138  RH  033%=      5-min Rain = 0
KTAS 210209Z 17009KT 32/14 A2986 RMK A01 T03210138  RH  033%=      5-min Rain = 0
KTAS 210210Z 17009KT 32/14 A2986 RMK A01 T03220137  RH  033%=      5-min Rain = 0
KTAS 210211Z 16009KT 32/14 A2986 RMK A01 T03230138  RH  033%=      5-min Rain = 0
KTAS 210212Z 17008KT 32/14 A2986 RMK A01 T03230139  RH  033%=      5-min Rain = 0
KTAS 210213Z 17009KT 32/14 A2986 RMK A01 T03230139  RH  033%=      5-min Rain = 0
KTAS 210214Z 17009KT 32/14 A2986 RMK A01 T03230140  RH  033%=      5-min Rain = 0
KTAS 210215Z 17009KT 32/14 A2986 RMK A01 T03220141  RH  033%=      5-min Rain = 0
KTAS 210216Z 17010KT 32/14 A2986 RMK A01 T03220141  RH  033%=      5-min Rain = 0
KTAS 210217Z 17009KT 32/14 A2987 RMK A01 T03220141  RH  034%=      5-min Rain = 0
KTAS 210218Z 17009KT 32/14 A2987 RMK A01 T03220142  RH  034%=      5-min Rain = 0
KTAS 210219Z 17010KT 32/14 A2987 RMK A01 T03220142  RH  034%=      5-min Rain = 0
KTAS 210220Z 17010KT 32/14 A2987 RMK A01 T03230143  RH  034%=      5-min Rain = 0
KTAS 210221Z 17011KT 32/14 A2987 RMK A01 T03230143  RH  034%=      5-min Rain = 0
KTAS 210222Z 16010KT 32/14 A2987 RMK A01 T03230144  RH  034%=      5-min Rain = 0
KTAS 210223Z 17010KT 32/14 A2987 RMK A01 T03220144  RH  034%=      5-min Rain = 0
KTAS 210224Z 17009KT 32/15 A2987 RMK A01 T03220145  RH  034%=      5-min Rain = 0
KTAS 210225Z 17010KT 32/15 A2987 RMK A01 T03210145  RH  035%=      5-min Rain = 0
KTAS 210226Z 17009KT 32/15 A2987 RMK A01 T03200145  RH  035%=      5-min Rain = 0
KTAS 210227Z 17009KT 32/15 A2987 RMK A01 T03200146  RH  035%=      5-min Rain = 0
KTAS 210228Z 17009KT 32/15 A2987 RMK A01 T03190146  RH  035%=      5-min Rain = 0
KTAS 210229Z 17009KT 32/15 A2987 RMK A01 T03190146  RH  035%=      5-min Rain = 0
KTAS 210230Z 17009KT 32/15 A2987 RMK A01 T03180146  RH  035%=      5-min Rain = 0
KTAS 210231Z 17009KT 32/15 A2987 RMK A01 T03170146  RH  035%=      5-min Rain = 0
KTAS 210232Z 17009KT 32/15 A2987 RMK A01 T03170146  RH  035%=      5-min Rain = 0
KTAS 210233Z 17009KT 32/15 A2987 RMK A01 T03180147  RH  035%=      5-min Rain = 0
KTAS 210234Z 17009KT 32/15 A2987 RMK A01 T03180146  RH  035%=      5-min Rain = 0
KTAS 210235Z 17009KT 32/15 A2987 RMK A01 T03180147  RH  036%=      5-min Rain = 0
KTAS 210236Z 17009KT 32/15 A2987 RMK A01 T03170147  RH  036%=      5-min Rain = 0
KTAS 210237Z 17010KT 32/15 A2987 RMK A01 T03170147  RH  036%=      5-min Rain = 0
KTAS 210238Z 17010KT 32/15 A2987 RMK A01 T03180147  RH  035%=      5-min Rain = 0
KTAS 210239Z 17011KT 32/15 A2987 RMK A01 T03180146  RH  035%=      5-min Rain = 0
KTAS 210240Z 17010KT 32/15 A2987 RMK A01 T03190146  RH  035%=      5-min Rain = 0
KTAS 210241Z 17011KT 32/15 A2988 RMK A01 T03190147  RH  035%=      5-min Rain = 0
KTAS 210242Z 17010KT 32/15 A2988 RMK A01 T03200147  RH  035%=      5-min Rain = 0
KTAS 210243Z 17009KT 32/15 A2988 RMK A01 T03200147  RH  035%=      5-min Rain = 0
KTAS 210244Z 17010KT 32/15 A2988 RMK A01 T03190148  RH  035%=      5-min Rain = 0
KTAS 210245Z 17010KT 32/15 A2988 RMK A01 T03180147  RH  036%=      5-min Rain = 0
KTAS 210246Z 17010KT 32/15 A2988 RMK A01 T03190147  RH  035%=      5-min Rain = 0
KTAS 210247Z 17009KT 32/15 A2988 RMK A01 T03180147  RH  035%=      5-min Rain = 0
KTAS 210248Z 17010KT 32/15 A2988 RMK A01 T03180147  RH  035%=      5-min Rain = 0
KTAS 210249Z 17011KT 32/15 A2988 RMK A01 T03190146  RH  035%=      5-min Rain = 0
KTAS 210250Z 17010KT 32/15 A2988 RMK A01 T03200146  RH  035%=      5-min Rain = 0
KTAS 210251Z 17011KT 32/15 A2988 RMK A01 T03200147  RH  035%=      5-min Rain = 0
KTAS 210252Z 17010KT 32/15 A2988 RMK A01 T03200147  RH  035%=      5-min Rain = 0
KTAS 210253Z 17012KT 32/15 A2988 RMK A01 T03200147  RH  035%=      5-min Rain = 0
KTAS 210254Z 17012KT 32/15 A2988 RMK A01 T03210147  RH  035%=      5-min Rain = 0
KTAS 210255Z 17011KT 32/15 A2988 RMK A01 T03210148  RH  035%=      5-min Rain = 0
KTAS 210256Z 17012KT 32/15 A2988 RMK A01 T03210147  RH  035%=      5-min Rain = 0
KTAS 210257Z 17012KT 32/15 A2988 RMK A01 T03210147  RH  035%=      5-min Rain = 0
KTAS 210258Z 17011KT 32/15 A2988 RMK A01 T03220147  RH  035%=      5-min Rain = 0
KTAS 210259Z 16012KT 32/15 A2988 RMK A01 T03210148  RH  035%=      5-min Rain = 0
KTAS 210300Z 16012KT 32/15 A2988 RMK A01 T03200148  RH  035%=      5-min Rain = 0
KTAS 210301Z 17011KT 32/15 A2988 RMK A01 T03190148  RH  036%=      5-min Rain = 0
KTAS 210302Z 17011KT 32/15 A2988 RMK A01 T03180148  RH  036%=      5-min Rain = 0
KTAS 210303Z 17012KT 32/15 A2988 RMK A01 T03180147  RH  036%=      5-min Rain = 0
KTAS 210304Z 17012KT 32/15 A2988 RMK A01 T03190147  RH  035%=      5-min Rain = 0
KTAS 210305Z 17011KT 32/15 A2988 RMK A01 T03180148  RH  036%=      5-min Rain = 0
KTAS 210306Z 17011KT 32/15 A2988 RMK A01 T03170148  RH  036%=      5-min Rain = 0
KTAS 210307Z 17012KT 32/15 A2988 RMK A01 T03170148  RH  036%=      5-min Rain = 0
KTAS 210308Z 17010KT 32/15 A2988 RMK A01 T03170148  RH  036%=      5-min Rain = 0
KTAS 210309Z 17011KT 32/15 A2988 RMK A01 T03160147  RH  036%=      5-min Rain = 0
KTAS 210310Z 17011KT 32/15 A2988 RMK A01 T03160147  RH  036%=      5-min Rain = 0
KTAS 210311Z 17010KT 32/15 A2988 RMK A01 T03150148  RH  036%=      5-min Rain = 0
KTAS 210312Z 16012KT 31/15 A2988 RMK A01 T03140148  RH  036%=      5-min Rain = 0
KTAS 210313Z 17011KT 31/15 A2988 RMK A01 T03140147  RH  036%=      5-min Rain = 0
KTAS 210314Z 17011KT 31/15 A2988 RMK A01 T03140146  RH  036%=      5-min Rain = 0
KTAS 210315Z 16010KT 32/15 A2988 RMK A01 T03150147  RH  036%=      5-min Rain = 0
KTAS 210316Z 17009KT 31/15 A2989 RMK A01 T03140148  RH  037%=      5-min Rain = 0
KTAS 210317Z 17011KT 31/15 A2989 RMK A01 T03130147  RH  037%=      5-min Rain = 0
KTAS 210318Z 16011KT 31/15 A2989 RMK A01 T03130146  RH  036%=      5-min Rain = 0
KTAS 210319Z 17011KT 31/15 A2989 RMK A01 T03140146  RH  036%=      5-min Rain = 0
KTAS 210320Z 17011KT 31/15 A2989 RMK A01 T03140146  RH  036%=      5-min Rain = 0
KTAS 210321Z 17012KT 31/15 A2989 RMK A01 T03140146  RH  036%=      5-min Rain = 0
KTAS 210322Z 17012KT 32/15 A2989 RMK A01 T03150146  RH  036%=      5-min Rain = 0
KTAS 210323Z 17009KT 31/15 A2989 RMK A01 T03140146  RH  036%=      5-min Rain = 0
KTAS 210324Z 17009KT 31/15 A2989 RMK A01 T03130147  RH  036%=      5-min Rain = 0
KTAS 210325Z 17011KT 31/15 A2989 RMK A01 T03120147  RH  037%=      5-min Rain = 0
KTAS 210326Z 17012KT 31/15 A2989 RMK A01 T03120145  RH  036%=      5-min Rain = 0
KTAS 210327Z 17011KT 31/15 A2989 RMK A01 T03120145  RH  036%=      5-min Rain = 0
KTAS 210328Z 17012KT 31/15 A2989 RMK A01 T03120145  RH  036%=      5-min Rain = 0
KTAS 210329Z 17012KT 31/15 A2989 RMK A01 T03120145  RH  036%=      5-min Rain = 0
KTAS 210330Z 17010KT 31/14 A2989 RMK A01 T03120144  RH  036%=      5-min Rain = 0
KTAS 210331Z 17011KT 31/14 A299 RMK A01 T03120144  RH  036%=      5-min Rain = 0
KTAS 210332Z 16011G17KT 31/15 A299 RMK A01 T03120145  RH  036%=      5-min Rain = 0
KTAS 210333Z 17013KT 31/14 A299 RMK A01 T03120143  RH  036%=      5-min Rain = 0
KTAS 210334Z 17012KT 31/14 A299 RMK A01 T03120143  RH  036%=      5-min Rain = 0
KTAS 210335Z 17012KT 31/14 A299 RMK A01 T03120143  RH  036%=      5-min Rain = 0
KTAS 210336Z 17011KT 31/14 A299 RMK A01 T03120142  RH  036%=      5-min Rain = 0
KTAS 210337Z 17012KT 31/14 A299 RMK A01 T03120141  RH  036%=      5-min Rain = 0
KTAS 210338Z 16012G17KT 31/14 A299 RMK A01 T03120141  RH  035%=      5-min Rain = 0
KTAS 210339Z 17012KT 31/14 A299 RMK A01 T03120140  RH  035%=      5-min Rain = 0
KTAS 210340Z 17012KT 31/14 A299 RMK A01 T03120139  RH  035%=      5-min Rain = 0
KTAS 210341Z 17013KT 31/14 A299 RMK A01 T03120139  RH  035%=      5-min Rain = 0
KTAS 210342Z 17014KT 31/14 A299 RMK A01 T03130139  RH  035%=      5-min Rain = 0
KTAS 210343Z 17012KT 31/14 A299 RMK A01 T03130139  RH  035%=      5-min Rain = 0
KTAS 210344Z 17014KT 31/14 A299 RMK A01 T03120138  RH  035%=      5-min Rain = 0
KTAS 210345Z 17012KT 31/14 A299 RMK A01 T03120138  RH  035%=      5-min Rain = 0
KTAS 210346Z 17013KT 31/14 A299 RMK A01 T03130138  RH  034%=      5-min Rain = 0
KTAS 210347Z 17012KT 31/14 A299 RMK A01 T03120138  RH  035%=      5-min Rain = 0
KTAS 210348Z 17012KT 31/14 A299 RMK A01 T03120138  RH  035%=      5-min Rain = 0
KTAS 210349Z 17012KT 31/14 A299 RMK A01 T03110139  RH  035%=      5-min Rain = 0
KTAS 210350Z 17013KT 31/14 A299 RMK A01 T03100138  RH  035%=      5-min Rain = 0
KTAS 210351Z 17013KT 31/14 A299 RMK A01 T03100137  RH  035%=      5-min Rain = 0
KTAS 210352Z 17011KT 31/14 A299 RMK A01 T03100136  RH  035%=      5-min Rain = 0
KTAS 210353Z 17013KT 31/14 A299 RMK A01 T03100136  RH  035%=      5-min Rain = 0
KTAS 210354Z 17013KT 31/14 A299 RMK A01 T03100135  RH  034%=      5-min Rain = 0
KTAS 210355Z 17014KT 31/14 A299 RMK A01 T03100135  RH  034%=      5-min Rain = 0
KTAS 210356Z 17013KT 31/13 A299 RMK A01 T03110134  RH  034%=      5-min Rain = 0
KTAS 210357Z 17013KT 31/13 A299 RMK A01 T03110134  RH  034%=      5-min Rain = 0
KTAS 210358Z 17012KT 31/14 A299 RMK A01 T03100135  RH  034%=      5-min Rain = 0
KTAS 210359Z 17013KT 31/13 A299 RMK A01 T03100134  RH  034%=      5-min Rain = 0
KTAS 210400Z 16012KT 31/13 A2991 RMK A01 T03100134  RH  034%=      5-min Rain = 0
KTAS 210401Z 17012KT 31/13 A2991 RMK A01 T03090134  RH  034%=      5-min Rain = 0
KTAS 210402Z 16013KT 31/13 A2991 RMK A01 T03090134  RH  034%=      5-min Rain = 0
KTAS 210403Z 16012KT 31/13 A2991 RMK A01 T03080133  RH  034%=      5-min Rain = 0
KTAS 210404Z 17013KT 31/13 A2991 RMK A01 T03080133  RH  034%=      5-min Rain = 0
KTAS 210405Z 17012KT 31/13 A2991 RMK A01 T03080133  RH  034%=      5-min Rain = 0
KTAS 210406Z 17012KT 31/13 A2991 RMK A01 T03070133  RH  034%=      5-min Rain = 0
KTAS 210407Z 17012KT 31/13 A2991 RMK A01 T03070132  RH  034%=      5-min Rain = 0
KTAS 210408Z 17013KT 31/13 A2991 RMK A01 T03070131  RH  034%=      5-min Rain = 0
KTAS 210409Z 17012KT 31/13 A2991 RMK A01 T03080131  RH  034%=      5-min Rain = 0
KTAS 210410Z 17012KT 31/13 A2991 RMK A01 T03080131  RH  034%=      5-min Rain = 0
KTAS 210411Z 17013G18KT 31/13 A2991 RMK A01 T03080130  RH  034%=      5-min Rain = 0
KTAS 210412Z 17011KT 31/13 A2991 RMK A01 T03080130  RH  034%=      5-min Rain = 0
KTAS 210413Z 17009KT 31/13 A2991 RMK A01 T03070130  RH  034%=      5-min Rain = 0
KTAS 210414Z 17011KT 31/13 A2992 RMK A01 T03060130  RH  034%=      5-min Rain = 0
KTAS 210415Z 17011KT 31/13 A2992 RMK A01 T03060129  RH  034%=      5-min Rain = 0
KTAS 210416Z 17010KT 31/13 A2992 RMK A01 T03060129  RH  034%=      5-min Rain = 0
KTAS 210417Z 17011KT 31/13 A2992 RMK A01 T03050129  RH  034%=      5-min Rain = 0
KTAS 210418Z 17012KT 31/13 A2992 RMK A01 T03050129  RH  034%=      5-min Rain = 0
KTAS 210419Z 17010KT 31/13 A2992 RMK A01 T03050128  RH  034%=      5-min Rain = 0
KTAS 210420Z 17010KT 30/13 A2992 RMK A01 T03040128  RH  034%=      5-min Rain = 0
KTAS 210421Z 17012KT 30/13 A2992 RMK A01 T03040128  RH  034%=      5-min Rain = 0
KTAS 210422Z 17012KT 30/13 A2992 RMK A01 T03040127  RH  034%=      5-min Rain = 0
KTAS 210423Z 17013KT 30/13 A2992 RMK A01 T03040127  RH  034%=      5-min Rain = 0
KTAS 210424Z 17012KT 30/13 A2992 RMK A01 T03040126  RH  033%=      5-min Rain = 0
KTAS 210425Z 17014KT 31/13 A2992 RMK A01 T03050125  RH  033%=      5-min Rain = 0
KTAS 210426Z 17013KT 31/13 A2992 RMK A01 T03060125  RH  033%=      5-min Rain = 0
KTAS 210427Z 17012KT 31/13 A2992 RMK A01 T03060125  RH  033%=      5-min Rain = 0
KTAS 210428Z 18013KT 31/13 A2992 RMK A01 T03050125  RH  033%=      5-min Rain = 0
KTAS 210429Z 18011KT 31/12 A2992 RMK A01 T03050124  RH  033%=      5-min Rain = 0
KTAS 210430Z 18012G17KT 31/12 A2992 RMK A01 T03050124  RH  033%=      5-min Rain = 0
KTAS 210431Z 17012KT 31/12 A2992 RMK A01 T03050123  RH  033%=      5-min Rain = 0
KTAS 210432Z 17015G21KT 31/12 A2992 RMK A01 T03050123  RH  033%=      5-min Rain = 0
KTAS 210433Z 17013KT 31/12 A2992 RMK A01 T03060122  RH  032%=      5-min Rain = 0
KTAS 210434Z 17014KT 31/12 A2992 RMK A01 T03060123  RH  032%=      5-min Rain = 0
KTAS 210435Z 17014KT 31/12 A2992 RMK A01 T03060122  RH  032%=      5-min Rain = 0
KTAS 210436Z 17014KT 31/12 A2992 RMK A01 T03060122  RH  032%=      5-min Rain = 0
KTAS 210437Z 17013KT 31/12 A2992 RMK A01 T03060123  RH  032%=      5-min Rain = 0
KTAS 210438Z 17011KT 31/12 A2992 RMK A01 T03050123  RH  033%=      5-min Rain = 0
KTAS 210439Z 17013KT 30/12 A2992 RMK A01 T03040123  RH  033%=      5-min Rain = 0
KTAS 210440Z 17013KT 30/12 A2992 RMK A01 T03030123  RH  033%=      5-min Rain = 0
KTAS 210441Z 17014KT 30/12 A2992 RMK A01 T03040122  RH  033%=      5-min Rain = 0
KTAS 210442Z 17014KT 30/12 A2992 RMK A01 T03040123  RH  033%=      5-min Rain = 0
KTAS 210443Z 17013KT 30/12 A2992 RMK A01 T03040122  RH  033%=      5-min Rain = 0
KTAS 210444Z 17013KT 30/12 A2992 RMK A01 T03040122  RH  033%=      5-min Rain = 0
KTAS 210445Z 18012KT 30/12 A2992 RMK A01 T03040122  RH  033%=      5-min Rain = 0
KTAS 210446Z 17015KT 30/12 A2992 RMK A01 T03030122  RH  033%=      5-min Rain = 0
KTAS 210447Z 17012KT 30/12 A2993 RMK A01 T03040121  RH  033%=      5-min Rain = 0
KTAS 210448Z 17015KT 30/12 A2993 RMK A01 T03040121  RH  033%=      5-min Rain = 0
KTAS 210449Z 17013G18KT 30/12 A2993 RMK A01 T03040122  RH  033%=      5-min Rain = 0
KTAS 210450Z 17013KT 30/12 A2993 RMK A01 T03040121  RH  033%=      5-min Rain = 0
KTAS 210451Z 17012KT 30/12 A2993 RMK A01 T03040122  RH  033%=      5-min Rain = 0
KTAS 210452Z 17013KT 30/12 A2993 RMK A01 T03030122  RH  033%=      5-min Rain = 0
KTAS 210453Z 17015KT 30/12 A2993 RMK A01 T03020121  RH  033%=      5-min Rain = 0
KTAS 210454Z 17013KT 30/12 A2993 RMK A01 T03030121  RH  033%=      5-min Rain = 0
KTAS 210455Z 18015KT 30/12 A2993 RMK A01 T03020121  RH  033%=      5-min Rain = 0
KTAS 210456Z 17013KT 30/12 A2993 RMK A01 T03030121  RH  033%=      5-min Rain = 0
KTAS 210457Z 18013KT 30/12 A2993 RMK A01 T03030121  RH  033%=      5-min Rain = 0
KTAS 210458Z 17014KT 30/12 A2993 RMK A01 T03020121  RH  033%=      5-min Rain = 0
KTAS 210459Z 17014KT 30/12 A2993 RMK A01 T03020121  RH  033%=      5-min Rain = 0

Page generated in 0.1288 seconds.